Wetterdaten: Freitag, 27.09.2019
Datum Zeit Temp. Aussen Temp. o. S. +5cm Feuchte Auss Luftdruck Regen Sonnenschein Regendauer Solar Windben Empfang
27.09.2019 00:00 17,1 C 13,9 C 16,1 C 91 % 1009,9 hPa 0,0 l/m 0 min 2 min 0 W/m 22,5 km/h (4 Bft) 97,87 %
27.09.2019 00:02 16,8 C 13,3 C 16,1 C 91 % 1009,8 hPa 0,0 l/m 0 min 0 min 0 W/m 16,1 km/h (3 Bft) 97,83 %
27.09.2019 00:04 16,6 C 13,3 C 16,1 C 91 % 1010,0 hPa 0,0 l/m 0 min 0 min 0 W/m 22,5 km/h (4 Bft) 95,74 %
27.09.2019 00:08 16,1 C 13,3 C 16,1 C 91 % 1009,9 hPa 0,0 l/m 0 min 4 min 0 W/m 22,5 km/h (4 Bft) 96,77 %
27.09.2019 00:10 15,9 C 13,3 C 16,1 C 91 % 1009,9 hPa 0,0 l/m 0 min 2 min 0 W/m 16,1 km/h (3 Bft) 97,87 %
27.09.2019 00:12 15,8 C 13,3 C 16,1 C 92 % 1009,8 hPa 0,0 l/m 0 min 0 min 0 W/m 19,3 km/h (3 Bft) 97,87 %
27.09.2019 00:14 15,7 C 13,3 C 16,1 C 91 % 1009,9 hPa 0,0 l/m 0 min 0 min 0 W/m 16,1 km/h (3 Bft) 95,74 %
27.09.2019 00:16 15,6 C 12,8 C 16,1 C 92 % 1009,9 hPa 0,0 l/m 0 min 2 min 0 W/m 12,9 km/h (3 Bft) 97,87 %
27.09.2019 00:18 15,4 C 12,8 C 16,1 C 92 % 1009,7 hPa 0,0 l/m 0 min 0 min 0 W/m 12,9 km/h (3 Bft) 97,83 %
27.09.2019 00:20 15,3 C 12,8 C 16,1 C 92 % 1009,5 hPa 0,0 l/m 0 min 2 min 0 W/m 12,9 km/h (3 Bft) 97,87 %
27.09.2019 00:22 15,2 C 12,8 C 16,1 C 92 % 1009,8 hPa 0,0 l/m 0 min 0 min 0 W/m 6,4 km/h (2 Bft) 97,87 %
27.09.2019 00:24 15,1 C 12,8 C 16,1 C 92 % 1009,8 hPa 0,0 l/m 0 min 0 min 0 W/m 6,4 km/h (2 Bft) 100,00 %
27.09.2019 00:26 15,1 C 12,8 C 16,1 C 92 % 1009,9 hPa 0,0 l/m 0 min 0 min 0 W/m 12,9 km/h (3 Bft) 100,00 %
27.09.2019 00:28 14,9 C 12,8 C 16,1 C 93 % 1009,8 hPa 0,0 l/m 0 min 0 min 0 W/m 12,9 km/h (3 Bft) 100,00 %
27.09.2019 00:30 14,9 C 12,8 C 16,1 C 93 % 1009,8 hPa 0,0 l/m 0 min 0 min 0 W/m 12,9 km/h (3 Bft) 95,65 %
27.09.2019 00:32 14,9 C 12,8 C 16,1 C 93 % 1009,8 hPa 0,0 l/m 0 min 0 min 0 W/m 6,4 km/h (2 Bft) 95,74 %
27.09.2019 00:34 14,8 C 12,8 C 16,1 C 93 % 1009,8 hPa 0,0 l/m 0 min 0 min 0 W/m 3,2 km/h (1 Bft) 97,87 %
27.09.2019 00:36 14,8 C 12,8 C 16,1 C 93 % 1009,7 hPa 0,0 l/m 0 min 0 min 0 W/m 12,9 km/h (3 Bft) 97,62 %
27.09.2019 00:38 14,8 C 12,8 C 16,1 C 93 % 1009,7 hPa 0,0 l/m 0 min 0 min 0 W/m 12,9 km/h (3 Bft) 95,74 %
27.09.2019 00:40 14,7 C 12,8 C 16,1 C 94 % 1009,8 hPa 0,0 l/m 0 min 0 min 0 W/m 12,9 km/h (3 Bft) 97,87 %
27.09.2019 00:42 14,7 C 13,3 C 16,1 C 94 % 1009,6 hPa 0,0 l/m 0 min 0 min 0 W/m 16,1 km/h (3 Bft) 97,92 %
27.09.2019 00:44 14,7 C 13,3 C 16,1 C 94 % 1009,8 hPa 0,0 l/m 0 min 2 min 0 W/m 6,4 km/h (2 Bft) 97,92 %
27.09.2019 00:46 14,7 C 13,3 C 16,1 C 94 % 1009,8 hPa 0,0 l/m 0 min 2 min 0 W/m 9,7 km/h (2 Bft) 97,92 %
27.09.2019 00:48 14,7 C 13,3 C 16,1 C 94 % 1009,9 hPa 0,0 l/m 0 min 2 min 0 W/m 22,5 km/h (4 Bft) 97,87 %
27.09.2019 00:50 14,7 C 12,8 C 16,1 C 95 % 1010,0 hPa 0,0 l/m 0 min 2 min 0 W/m 16,1 km/h (3 Bft) 97,87 %
27.09.2019 00:52 14,6 C 12,8 C 16,1 C 95 % 1009,9 hPa 0,2 l/m 0 min 2 min 0 W/m 16,1 km/h (3 Bft) 97,87 %
27.09.2019 00:54 14,6 C 12,8 C 16,1 C 95 % 1009,9 hPa 0,0 l/m 0 min 2 min 0 W/m 9,7 km/h (2 Bft) 97,87 %
27.09.2019 00:56 14,6 C 12,8 C 16,1 C 95 % 1009,9 hPa 0,0 l/m 0 min 2 min 0 W/m 29,0 km/h (5 Bft) 97,87 %
27.09.2019 00:58 14,5 C 12,8 C 16,1 C 95 % 1009,9 hPa 0,2 l/m 0 min 2 min 0 W/m 12,9 km/h (3 Bft) 97,87 %
27.09.2019 01:00 14,4 C 12,8 C 16,1 C 95 % 1009,9 hPa 0,2 l/m 0 min 2 min 0 W/m 16,1 km/h (3 Bft) 97,87 %
27.09.2019 01:02 14,4 C 12,8 C 16,1 C 95 % 1009,9 hPa 0,2 l/m 0 min 2 min 0 W/m 12,9 km/h (3 Bft) 97,87 %
27.09.2019 01:04 14,4 C 12,8 C 16,1 C 95 % 1009,9 hPa 0,0 l/m 0 min 2 min 0 W/m 16,1 km/h (3 Bft) 97,83 %
27.09.2019 01:06 14,3 C 12,8 C 16,1 C 95 % 1010,0 hPa 0,0 l/m 0 min 2 min 0 W/m 12,9 km/h (3 Bft) 97,87 %
27.09.2019 01:08 14,3 C 12,8 C 16,1 C 95 % 1010,0 hPa 0,0 l/m 0 min 2 min 0 W/m 16,1 km/h (3 Bft) 97,87 %
27.09.2019 01:10 14,2 C 12,8 C 16,1 C 95 % 1010,0 hPa 0,2 l/m 0 min 2 min 0 W/m 9,7 km/h (2 Bft) 95,74 %
27.09.2019 01:12 14,2 C 12,8 C 16,1 C 95 % 1010,0 hPa 0,0 l/m 0 min 2 min 0 W/m 16,1 km/h (3 Bft) 97,87 %
27.09.2019 01:14 14,2 C 12,8 C 16,1 C 95 % 1010,0 hPa 0,0 l/m 0 min 0 min 0 W/m 16,1 km/h (3 Bft) 95,74 %
27.09.2019 01:16 14,2 C 12,2 C 16,1 C 95 % 1009,9 hPa 0,0 l/m 0 min 2 min 0 W/m 12,9 km/h (3 Bft) 97,83 %
27.09.2019 01:18 14,2 C 12,2 C 16,1 C 95 % 1009,9 hPa 0,0 l/m 0 min 0 min 0 W/m 12,9 km/h (3 Bft) 97,87 %
27.09.2019 01:20 14,2 C 12,2 C 16,1 C 96 % 1009,9 hPa 0,0 l/m 0 min 2 min 0 W/m 12,9 km/h (3 Bft) 97,87 %
27.09.2019 01:22 14,2 C 12,2 C 16,1 C 96 % 1010,0 hPa 0,0 l/m 0 min 0 min 0 W/m 16,1 km/h (3 Bft) 95,74 %
27.09.2019 01:24 14,2 C 12,2 C 16,1 C 96 % 1010,0 hPa 0,0 l/m 0 min 0 min 0 W/m 3,2 km/h (1 Bft) 97,87 %
27.09.2019 01:26 14,2 C 12,2 C 16,1 C 96 % 1010,0 hPa 0,0 l/m 0 min 2 min 0 W/m 12,9 km/h (3 Bft) 95,74 %
27.09.2019 01:28 14,1 C 12,2 C 16,1 C 96 % 1010,1 hPa 0,2 l/m 0 min 2 min 0 W/m 9,7 km/h (2 Bft) 97,83 %
27.09.2019 01:30 14,1 C 12,2 C 16,1 C 96 % 1010,1 hPa 0,0 l/m 0 min 2 min 0 W/m 3,2 km/h (1 Bft) 100,00 %
27.09.2019 01:32 14,1 C 12,2 C 16,1 C 96 % 1010,1 hPa 0,0 l/m 0 min 2 min 0 W/m 9,7 km/h (2 Bft) 100,00 %
27.09.2019 01:34 14,0 C 12,2 C 16,1 C 96 % 1010,1 hPa 0,0 l/m 0 min 2 min 0 W/m 3,2 km/h (1 Bft) 97,87 %
27.09.2019 01:36 14,0 C 12,2 C 16,1 C 96 % 1010,1 hPa 0,0 l/m 0 min 0 min 0 W/m 12,9 km/h (3 Bft) 97,87 %
27.09.2019 01:38 14,0 C 12,2 C 16,1 C 96 % 1010,0 hPa 0,0 l/m 0 min 0 min 0 W/m 12,9 km/h (3 Bft) 100,00 %
27.09.2019 01:40 13,9 C 12,2 C 16,1 C 96 % 1010,0 hPa 0,0 l/m 0 min 0 min 0 W/m 12,9 km/h (3 Bft) 100,00 %
27.09.2019 01:42 13,9 C 12,2 C 16,1 C 96 % 1010,1 hPa 0,0 l/m 0 min 0 min 0 W/m 16,1 km/h (3 Bft) 100,00 %
27.09.2019 01:44 13,9 C 12,2 C 16,1 C 96 % 1010,1 hPa 0,0 l/m 0 min 0 min 0 W/m 3,2 km/h (1 Bft) 97,87 %
27.09.2019 01:46 13,9 C 12,2 C 16,1 C 96 % 1010,1 hPa 0,0 l/m 0 min 0 min 0 W/m 16,1 km/h (3 Bft) 95,74 %
27.09.2019 01:48 13,9 C 12,2 C 16,1 C 96 % 1010,1 hPa 0,0 l/m 0 min 0 min 0 W/m 12,9 km/h (3 Bft) 97,87 %
27.09.2019 01:50 13,8 C 12,2 C 16,1 C 96 % 1010,1 hPa 0,0 l/m 0 min 0 min 0 W/m 16,1 km/h (3 Bft) 97,83 %
27.09.2019 01:52 13,8 C 12,2 C 16,1 C 96 % 1010,2 hPa 0,0 l/m 0 min 0 min 0 W/m 6,4 km/h (2 Bft) 95,74 %
27.09.2019 01:54 13,8 C 12,2 C 16,1 C 96 % 1010,2 hPa 0,0 l/m 0 min 0 min 0 W/m 6,4 km/h (2 Bft) 97,87 %
27.09.2019 01:56 13,8 C 12,2 C 16,1 C 96 % 1010,2 hPa 0,0 l/m 0 min 0 min 0 W/m 12,9 km/h (3 Bft) 95,74 %
27.09.2019 01:58 13,8 C 12,2 C 16,1 C 97 % 1010,3 hPa 0,0 l/m 0 min 0 min 0 W/m 12,9 km/h (3 Bft) 97,87 %
27.09.2019 02:00 13,8 C 12,2 C 16,1 C 97 % 1010,2 hPa 0,0 l/m 0 min 0 min 0 W/m 12,9 km/h (3 Bft) 93,48 %
27.09.2019 02:02 13,8 C 12,2 C 16,1 C 96 % 1010,2 hPa 0,0 l/m 0 min 0 min 0 W/m 6,4 km/h (2 Bft) 97,87 %
27.09.2019 02:04 13,8 C 12,2 C 16,1 C 96 % 1010,1 hPa 0,0 l/m 0 min 0 min 0 W/m 16,1 km/h (3 Bft) 96,00 %
27.09.2019 02:06 13,8 C 12,2 C 16,1 C 96 % 1010,2 hPa 0,0 l/m 0 min 0 min 0 W/m 6,4 km/h (2 Bft) 95,83 %
27.09.2019 02:08 13,7 C 12,2 C 16,1 C 97 % 1010,2 hPa 0,0 l/m 0 min 2 min 0 W/m 16,1 km/h (3 Bft) 95,74 %
27.09.2019 02:10 13,7 C 12,2 C 16,1 C 97 % 1010,2 hPa 0,0 l/m 0 min 2 min 0 W/m 12,9 km/h (3 Bft) 97,87 %
27.09.2019 02:12 13,7 C 12,2 C 16,1 C 97 % 1010,2 hPa 0,0 l/m 0 min 2 min 0 W/m 16,1 km/h (3 Bft) 97,83 %
27.09.2019 02:14 13,7 C 12,2 C 16,1 C 97 % 1010,2 hPa 0,0 l/m 0 min 0 min 0 W/m 16,1 km/h (3 Bft) 100,00 %
27.09.2019 02:16 13,7 C 12,2 C 16,1 C 97 % 1010,2 hPa 0,0 l/m 0 min 0 min 0 W/m 19,3 km/h (3 Bft) 97,87 %
27.09.2019 02:18 13,7 C 12,2 C 16,1 C 97 % 1010,2 hPa 0,0 l/m 0 min 0 min 0 W/m 22,5 km/h (4 Bft) 97,87 %
27.09.2019 02:20 13,7 C 12,2 C 16,1 C 97 % 1010,1 hPa 0,0 l/m 0 min 0 min 0 W/m 6,4 km/h (2 Bft) 93,62 %
27.09.2019 02:22 13,7 C 12,2 C 16,1 C 97 % 1010,0 hPa 0,0 l/m 0 min 0 min 0 W/m 12,9 km/h (3 Bft) 95,65 %
27.09.2019 02:24 13,7 C 12,2 C 16,1 C 97 % 1010,1 hPa 0,0 l/m 0 min 0 min 0 W/m 16,1 km/h (3 Bft) 93,62 %
27.09.2019 02:26 13,7 C 12,2 C 16,1 C 97 % 1010,0 hPa 0,0 l/m 0 min 0 min 0 W/m 19,3 km/h (3 Bft) 95,74 %
27.09.2019 02:28 13,7 C 12,2 C 16,1 C 97 % 1009,9 hPa 0,0 l/m 0 min 0 min 0 W/m 16,1 km/h (3 Bft) 95,74 %
27.09.2019 02:30 13,7 C 12,2 C 16,1 C 97 % 1009,8 hPa 0,0 l/m 0 min 0 min 0 W/m 6,4 km/h (2 Bft) 93,62 %
27.09.2019 02:32 13,7 C 12,2 C 16,1 C 97 % 1009,8 hPa 0,0 l/m 0 min 0 min 0 W/m 16,1 km/h (3 Bft) 95,74 %
27.09.2019 02:34 13,7 C 12,2 C 16,1 C 97 % 1010,0 hPa 0,2 l/m 0 min 0 min 0 W/m 6,4 km/h (2 Bft) 97,83 %
27.09.2019 02:36 13,7 C 12,2 C 16,1 C 97 % 1010,1 hPa 0,0 l/m 0 min 0 min 0 W/m 16,1 km/h (3 Bft) 97,87 %
27.09.2019 02:38 13,7 C 12,2 C 16,1 C 97 % 1010,1 hPa 0,0 l/m 0 min 2 min 0 W/m 19,3 km/h (3 Bft) 97,87 %
27.09.2019 02:40 13,7 C 12,2 C 16,1 C 97 % 1010,1 hPa 0,0 l/m 0 min 2 min 0 W/m 19,3 km/h (3 Bft) 95,74 %
27.09.2019 02:42 13,7 C 12,2 C 16,1 C 97 % 1010,1 hPa 0,0 l/m 0 min 2 min 0 W/m 19,3 km/h (3 Bft) 97,87 %
27.09.2019 02:44 13,7 C 12,2 C 16,1 C 97 % 1010,0 hPa 0,0 l/m 0 min 2 min 0 W/m 16,1 km/h (3 Bft) 97,87 %
27.09.2019 02:46 13,7 C 12,2 C 16,1 C 97 % 1009,9 hPa 0,0 l/m 0 min 2 min 0 W/m 19,3 km/h (3 Bft) 97,83 %
27.09.2019 02:48 13,7 C 12,2 C 16,1 C 97 % 1010,0 hPa 0,0 l/m 0 min 0 min 0 W/m 12,9 km/h (3 Bft) 91,49 %
27.09.2019 02:50 13,7 C 12,2 C 16,1 C 97 % 1010,1 hPa 0,0 l/m 0 min 0 min 0 W/m 12,9 km/h (3 Bft) 97,87 %
27.09.2019 02:52 13,7 C 12,8 C 16,1 C 97 % 1010,0 hPa 0,0 l/m 0 min 0 min 0 W/m 6,4 km/h (2 Bft) 95,74 %
27.09.2019 02:54 13,7 C 12,8 C 16,1 C 97 % 1009,9 hPa 0,0 l/m 0 min 0 min 0 W/m 6,4 km/h (2 Bft) 97,87 %
27.09.2019 02:56 13,7 C 12,8 C 16,1 C 98 % 1009,8 hPa 0,0 l/m 0 min 0 min 0 W/m 6,4 km/h (2 Bft) 97,87 %
27.09.2019 02:58 13,7 C 12,8 C 16,1 C 98 % 1009,8 hPa 0,0 l/m 0 min 0 min 0 W/m 12,9 km/h (3 Bft) 95,65 %
27.09.2019 03:00 13,7 C 12,8 C 16,1 C 98 % 1009,8 hPa 0,0 l/m 0 min 0 min 0 W/m 12,9 km/h (3 Bft) 97,87 %
27.09.2019 03:02 13,7 C 12,8 C 16,1 C 98 % 1009,8 hPa 0,0 l/m 0 min 0 min 0 W/m 6,4 km/h (2 Bft) 97,87 %
27.09.2019 03:04 13,7 C 12,8 C 16,1 C 98 % 1009,8 hPa 0,0 l/m 0 min 0 min 0 W/m 12,9 km/h (3 Bft) 100,00 %
27.09.2019 03:06 13,7 C 12,8 C 16,1 C 98 % 1009,7 hPa 0,0 l/m 0 min 0 min 0 W/m 12,9 km/h (3 Bft) 100,00 %
27.09.2019 03:08 13,7 C 12,8 C 16,1 C 98 % 1009,6 hPa 0,0 l/m 0 min 0 min 0 W/m 6,4 km/h (2 Bft) 100,00 %
27.09.2019 03:10 13,7 C 12,8 C 16,1 C 98 % 1009,5 hPa 0,0 l/m 0 min 0 min 0 W/m 6,4 km/h (2 Bft) 100,00 %
27.09.2019 03:12 13,8 C 12,8 C 16,1 C 98 % 1009,4 hPa 0,0 l/m 0 min 0 min 0 W/m 6,4 km/h (2 Bft) 97,87 %
27.09.2019 03:14 13,7 C 12,8 C 16,1 C 98 % 1009,5 hPa 0,0 l/m 0 min 0 min 0 W/m 12,9 km/h (3 Bft) 100,00 %
27.09.2019 03:16 13,8 C 12,8 C 16,1 C 98 % 1009,7 hPa 0,0 l/m 0 min 0 min 0 W/m 12,9 km/h (3 Bft) 97,87 %
27.09.2019 03:18 13,8 C 12,8 C 16,1 C 98 % 1009,6 hPa 0,0 l/m 0 min 0 min 0 W/m 3,2 km/h (1 Bft) 100,00 %
27.09.2019 03:20 13,8 C 12,8 C 16,1 C 98 % 1009,6 hPa 0,0 l/m 0 min 0 min 0 W/m 6,4 km/h (2 Bft) 97,87 %
27.09.2019 03:22 13,8 C 12,8 C 16,1 C 98 % 1009,5 hPa 0,0 l/m 0 min 0 min 0 W/m 6,4 km/h (2 Bft) 100,00 %
27.09.2019 03:24 13,8 C 12,8 C 16,1 C 98 % 1009,6 hPa 0,0 l/m 0 min 0 min 0 W/m 12,9 km/h (3 Bft) 100,00 %
27.09.2019 03:26 13,8 C 12,8 C 16,1 C 98 % 1009,7 hPa 0,0 l/m 0 min 0 min 0 W/m 6,4 km/h (2 Bft) 100,00 %
27.09.2019 03:28 13,8 C 12,8 C 16,1 C 98 % 1009,8 hPa 0,0 l/m 0 min 0 min 0 W/m 6,4 km/h (2 Bft) 100,00 %
27.09.2019 03:30 13,8 C 12,8 C 16,1 C 98 % 1009,9 hPa 0,0 l/m 0 min 0 min 0 W/m 6,4 km/h (2 Bft) 100,00 %
27.09.2019 03:32 13,8 C 12,8 C 16,1 C 98 % 1009,9 hPa 0,0 l/m 0 min 0 min 0 W/m 16,1 km/h (3 Bft) 100,00 %
27.09.2019 03:34 13,8 C 12,8 C 16,1 C 98 % 1009,9 hPa 0,0 l/m 0 min 0 min 0 W/m 12,9 km/h (3 Bft) 100,00 %
27.09.2019 03:36 13,8 C 12,8 C 16,1 C 98 % 1009,9 hPa 0,0 l/m 0 min 0 min 0 W/m 12,9 km/h (3 Bft) 100,00 %
27.09.2019 03:38 13,8 C 12,8 C 16,1 C 98 % 1009,9 hPa 0,0 l/m 0 min 0 min 0 W/m 19,3 km/h (3 Bft) 100,00 %
27.09.2019 03:40 13,8 C 12,8 C 16,1 C 98 % 1009,9 hPa 0,0 l/m 0 min 0 min 0 W/m 16,1 km/h (3 Bft) 100,00 %
27.09.2019 03:42 13,8 C 12,8 C 16,1 C 98 % 1009,8 hPa 0,0 l/m 0 min 0 min 0 W/m 19,3 km/h (3 Bft) 100,00 %
27.09.2019 03:44 13,8 C 12,8 C 16,1 C 98 % 1009,7 hPa 0,0 l/m 0 min 0 min 0 W/m 6,4 km/h (2 Bft) 100,00 %
27.09.2019 03:46 13,8 C 12,8 C 16,1 C 98 % 1009,6 hPa 0,0 l/m 0 min 0 min 0 W/m 12,9 km/h (3 Bft) 100,00 %
27.09.2019 03:48 13,8 C 12,8 C 16,1 C 98 % 1009,7 hPa 0,0 l/m 0 min 0 min 0 W/m 12,9 km/h (3 Bft) 100,00 %
27.09.2019 03:50 13,8 C 12,8 C 16,1 C 98 % 1009,6 hPa 0,0 l/m 0 min 0 min 0 W/m 6,4 km/h (2 Bft) 100,00 %
27.09.2019 03:52 13,8 C 12,8 C 16,1 C 98 % 1009,6 hPa 0,0 l/m 0 min 0 min 0 W/m 19,3 km/h (3 Bft) 100,00 %
27.09.2019 03:54 13,8 C 12,8 C 16,1 C 98 % 1009,6 hPa 0,0 l/m 0 min 0 min 0 W/m 19,3 km/h (3 Bft) 100,00 %
27.09.2019 03:56 13,8 C 12,8 C 16,1 C 98 % 1009,6 hPa 0,0 l/m 0 min 0 min 0 W/m 12,9 km/h (3 Bft) 100,00 %
27.09.2019 03:58 13,8 C 12,8 C 16,1 C 98 % 1009,6 hPa 0,0 l/m 0 min 0 min 0 W/m 16,1 km/h (3 Bft) 97,87 %
27.09.2019 04:00 13,8 C 12,8 C 16,1 C 98 % 1009,7 hPa 0,0 l/m 0 min 0 min 0 W/m 12,9 km/h (3 Bft) 97,87 %
27.09.2019 04:05 13,8 C 12,8 C 16,1 C 98 % 1009,6 hPa 0,0 l/m 0 min 0 min 0 W/m 22,5 km/h (4 Bft) 98,55 %
27.09.2019 04:06 13,8 C 12,8 C 16,1 C 98 % 1009,6 hPa 0,0 l/m 0 min 0 min 0 W/m 16,1 km/h (3 Bft) 95,83 %
27.09.2019 04:08 13,8 C 12,8 C 16,1 C 98 % 1009,5 hPa 0,0 l/m 0 min 0 min 0 W/m 19,3 km/h (3 Bft) 97,87 %
27.09.2019 04:10 13,8 C 12,8 C 16,1 C 98 % 1009,5 hPa 0,0 l/m 0 min 0 min 0 W/m 12,9 km/h (3 Bft) 97,87 %
27.09.2019 04:12 13,8 C 12,8 C 16,1 C 98 % 1009,5 hPa 0,0 l/m 0 min 0 min 0 W/m 12,9 km/h (3 Bft) 97,83 %
27.09.2019 04:14 13,8 C 12,8 C 16,1 C 98 % 1009,6 hPa 0,0 l/m 0 min 0 min 0 W/m 12,9 km/h (3 Bft) 97,87 %
27.09.2019 04:16 13,8 C 12,8 C 16,1 C 98 % 1009,7 hPa 0,0 l/m 0 min 0 min 0 W/m 6,4 km/h (2 Bft) 97,87 %
27.09.2019 04:18 13,8 C 12,8 C 16,1 C 98 % 1009,6 hPa 0,0 l/m 0 min 0 min 0 W/m 19,3 km/h (3 Bft) 97,87 %
27.09.2019 04:20 13,8 C 12,8 C 16,1 C 98 % 1009,5 hPa 0,0 l/m 0 min 0 min 0 W/m 12,9 km/h (3 Bft) 97,87 %
27.09.2019 04:22 13,8 C 12,8 C 16,1 C 98 % 1009,6 hPa 0,0 l/m 0 min 0 min 0 W/m 16,1 km/h (3 Bft) 95,65 %
27.09.2019 04:24 13,7 C 12,8 C 16,1 C 98 % 1009,4 hPa 0,0 l/m 0 min 0 min 0 W/m 19,3 km/h (3 Bft) 97,87 %
27.09.2019 04:26 13,8 C 12,8 C 16,1 C 98 % 1009,0 hPa 0,0 l/m 0 min 0 min 0 W/m 12,9 km/h (3 Bft) 97,87 %
27.09.2019 04:28 13,7 C 12,8 C 16,1 C 98 % 1009,3 hPa 0,0 l/m 0 min 0 min 0 W/m 16,1 km/h (3 Bft) 97,87 %
27.09.2019 04:30 13,7 C 12,8 C 16,1 C 98 % 1009,5 hPa 0,0 l/m 0 min 0 min 0 W/m 12,9 km/h (3 Bft) 95,74 %
27.09.2019 04:32 13,7 C 12,8 C 16,1 C 98 % 1009,6 hPa 0,0 l/m 0 min 0 min 0 W/m 16,1 km/h (3 Bft) 95,74 %
27.09.2019 04:34 13,7 C 12,8 C 16,1 C 98 % 1009,7 hPa 0,0 l/m 0 min 0 min 0 W/m 12,9 km/h (3 Bft) 97,83 %
27.09.2019 04:36 13,7 C 12,8 C 16,1 C 98 % 1009,7 hPa 0,0 l/m 0 min 0 min 0 W/m 16,1 km/h (3 Bft) 97,87 %
27.09.2019 04:38 13,7 C 12,8 C 16,1 C 98 % 1009,6 hPa 0,0 l/m 0 min 0 min 0 W/m 12,9 km/h (3 Bft) 97,87 %
27.09.2019 04:40 13,7 C 12,8 C 16,1 C 98 % 1009,7 hPa 0,0 l/m 0 min 0 min 0 W/m 12,9 km/h (3 Bft) 95,74 %
27.09.2019 04:42 13,7 C 12,8 C 16,1 C 98 % 1009,5 hPa 0,0 l/m 0 min 0 min 0 W/m 12,9 km/h (3 Bft) 95,74 %
27.09.2019 04:44 13,7 C 12,8 C 16,1 C 98 % 1009,4 hPa 0,0 l/m 0 min 0 min 0 W/m 12,9 km/h (3 Bft) 97,87 %
27.09.2019 04:46 13,7 C 12,8 C 16,1 C 98 % 1009,3 hPa 0,0 l/m 0 min 0 min 0 W/m 9,7 km/h (2 Bft) 95,65 %
27.09.2019 04:48 13,7 C 12,8 C 16,1 C 99 % 1009,1 hPa 0,0 l/m 0 min 0 min 0 W/m 12,9 km/h (3 Bft) 95,74 %
27.09.2019 04:50 13,7 C 12,8 C 16,1 C 99 % 1008,9 hPa 0,0 l/m 0 min 0 min 0 W/m 6,4 km/h (2 Bft) 95,74 %
27.09.2019 04:52 13,7 C 12,8 C 16,1 C 99 % 1009,3 hPa 0,0 l/m 0 min 2 min 0 W/m 12,9 km/h (3 Bft) 95,74 %
27.09.2019 04:54 13,7 C 12,8 C 16,1 C 99 % 1009,5 hPa 0,0 l/m 0 min 2 min 0 W/m 12,9 km/h (3 Bft) 91,49 %
27.09.2019 04:56 13,7 C 12,8 C 16,1 C 99 % 1009,5 hPa 0,0 l/m 0 min 2 min 0 W/m 6,4 km/h (2 Bft) 97,87 %
27.09.2019 04:58 13,7 C 12,8 C 16,1 C 99 % 1009,4 hPa 0,0 l/m 0 min 0 min 0 W/m 6,4 km/h (2 Bft) 95,65 %
27.09.2019 05:00 13,7 C 12,8 C 16,1 C 98 % 1009,5 hPa 0,0 l/m 0 min 0 min 0 W/m 6,4 km/h (2 Bft) 93,62 %
27.09.2019 05:02 13,7 C 12,8 C 16,1 C 99 % 1009,3 hPa 0,0 l/m 0 min 0 min 0 W/m 6,4 km/h (2 Bft) 95,74 %
27.09.2019 05:04 13,7 C 12,8 C 16,1 C 98 % 1009,6 hPa 0,0 l/m 0 min 0 min 0 W/m 6,4 km/h (2 Bft) 93,62 %
27.09.2019 05:06 13,7 C 12,8 C 16,1 C 98 % 1009,7 hPa 0,0 l/m 0 min 0 min 0 W/m 12,9 km/h (3 Bft) 95,74 %
27.09.2019 05:08 13,7 C 12,8 C 16,1 C 98 % 1009,7 hPa 0,0 l/m 0 min 0 min 0 W/m 9,7 km/h (2 Bft) 95,74 %
27.09.2019 05:10 13,7 C 12,8 C 16,1 C 98 % 1009,6 hPa 0,0 l/m 0 min 0 min 0 W/m 12,9 km/h (3 Bft) 93,48 %
27.09.2019 05:12 13,7 C 12,8 C 16,1 C 98 % 1009,7 hPa 0,0 l/m 0 min 0 min 0 W/m 6,4 km/h (2 Bft) 95,74 %
27.09.2019 05:14 13,7 C 12,8 C 16,1 C 98 % 1009,4 hPa 0,0 l/m 0 min 0 min 0 W/m 12,9 km/h (3 Bft) 95,74 %
27.09.2019 05:16 13,7 C 12,8 C 16,1 C 98 % 1009,4 hPa 0,0 l/m 0 min 0 min 0 W/m 3,2 km/h (1 Bft) 95,74 %
27.09.2019 05:18 13,7 C 12,8 C 16,1 C 98 % 1009,5 hPa 0,0 l/m 0 min 0 min 0 W/m 12,9 km/h (3 Bft) 97,87 %
27.09.2019 05:20 13,7 C 12,8 C 16,1 C 98 % 1009,2 hPa 0,0 l/m 0 min 0 min 0 W/m 12,9 km/h (3 Bft) 95,65 %
27.09.2019 05:22 13,7 C 12,8 C 16,1 C 98 % 1009,5 hPa 0,0 l/m 0 min 0 min 0 W/m 6,4 km/h (2 Bft) 93,62 %
27.09.2019 05:24 13,7 C 12,8 C 16,1 C 98 % 1009,5 hPa 0,0 l/m 0 min 0 min 0 W/m 3,2 km/h (1 Bft) 93,62 %
27.09.2019 05:26 13,7 C 12,8 C 16,1 C 98 % 1009,5 hPa 0,0 l/m 0 min 0 min 0 W/m 12,9 km/h (3 Bft) 93,62 %
27.09.2019 05:28 13,7 C 12,8 C 16,1 C 98 % 1009,5 hPa 0,0 l/m 0 min 0 min 0 W/m 3,2 km/h (1 Bft) 97,87 %
27.09.2019 05:30 13,7 C 12,8 C 16,1 C 98 % 1009,5 hPa 0,0 l/m 0 min 0 min 0 W/m 6,4 km/h (2 Bft) 95,74 %
27.09.2019 05:32 13,7 C 12,8 C 16,1 C 99 % 1009,5 hPa 0,0 l/m 0 min 0 min 0 W/m 3,2 km/h (1 Bft) 95,65 %
27.09.2019 05:34 13,7 C 12,8 C 16,1 C 99 % 1009,5 hPa 0,0 l/m 0 min 0 min 0 W/m 6,4 km/h (2 Bft) 97,87 %
27.09.2019 05:36 13,7 C 12,8 C 16,1 C 99 % 1009,4 hPa 0,0 l/m 0 min 0 min 0 W/m 6,4 km/h (2 Bft) 97,87 %
27.09.2019 05:38 13,7 C 12,8 C 16,1 C 99 % 1009,4 hPa 0,0 l/m 0 min 0 min 0 W/m 6,4 km/h (2 Bft) 97,87 %
27.09.2019 05:40 13,7 C 12,8 C 16,1 C 99 % 1009,2 hPa 0,0 l/m 0 min 0 min 0 W/m 3,2 km/h (1 Bft) 95,74 %
27.09.2019 05:42 13,7 C 12,8 C 16,1 C 99 % 1009,3 hPa 0,0 l/m 0 min 0 min 0 W/m 3,2 km/h (1 Bft) 100,00 %
27.09.2019 05:44 13,7 C 12,8 C 16,1 C 99 % 1009,2 hPa 0,0 l/m 0 min 0 min 0 W/m 6,4 km/h (2 Bft) 97,83 %
27.09.2019 05:46 13,7 C 12,8 C 16,1 C 99 % 1009,3 hPa 0,0 l/m 0 min 2 min 0 W/m 3,2 km/h (1 Bft) 100,00 %
27.09.2019 05:48 13,7 C 12,8 C 16,1 C 99 % 1009,4 hPa 0,0 l/m 0 min 2 min 0 W/m 3,2 km/h (1 Bft) 100,00 %
27.09.2019 05:50 13,6 C 12,8 C 16,1 C 99 % 1009,3 hPa 0,0 l/m 0 min 0 min 0 W/m 6,4 km/h (2 Bft) 100,00 %
27.09.2019 05:52 13,6 C 12,8 C 16,1 C 99 % 1009,3 hPa 0,0 l/m 0 min 0 min 0 W/m 6,4 km/h (2 Bft) 100,00 %
27.09.2019 05:54 13,6 C 12,8 C 16,1 C 99 % 1009,3 hPa 0,0 l/m 0 min 0 min 0 W/m 3,2 km/h (1 Bft) 97,87 %
27.09.2019 05:56 13,6 C 12,8 C 16,1 C 99 % 1009,3 hPa 0,0 l/m 0 min 0 min 0 W/m 6,4 km/h (2 Bft) 100,00 %
27.09.2019 05:58 13,6 C 12,8 C 16,1 C 99 % 1009,4 hPa 0,0 l/m 0 min 0 min 0 W/m 6,4 km/h (2 Bft) 100,00 %
27.09.2019 06:00 13,6 C 12,8 C 16,1 C 99 % 1009,3 hPa 0,0 l/m 0 min 0 min 0 W/m 6,4 km/h (2 Bft) 100,00 %
27.09.2019 06:02 13,6 C 12,8 C 16,1 C 99 % 1009,3 hPa 0,0 l/m 0 min 0 min 0 W/m 6,4 km/h (2 Bft) 97,87 %
27.09.2019 06:04 13,6 C 12,8 C 16,1 C 99 % 1009,4 hPa 0,0 l/m 0 min 0 min 0 W/m 6,4 km/h (2 Bft) 100,00 %
27.09.2019 06:08 13,6 C 12,8 C 16,1 C 99 % 1009,3 hPa 0,0 l/m 0 min 0 min 0 W/m 6,4 km/h (2 Bft) 100,00 %
27.09.2019 06:10 13,6 C 12,8 C 16,1 C 99 % 1009,2 hPa 0,0 l/m 0 min 0 min 0 W/m 12,9 km/h (3 Bft) 100,00 %
27.09.2019 06:12 13,6 C 12,8 C 16,1 C 99 % 1009,2 hPa 0,0 l/m 0 min 0 min 0 W/m 6,4 km/h (2 Bft) 100,00 %
27.09.2019 06:14 13,6 C 12,8 C 16,1 C 99 % 1009,1 hPa 0,0 l/m 0 min 0 min 0 W/m 16,1 km/h (3 Bft) 100,00 %
27.09.2019 06:16 13,6 C 12,8 C 16,1 C 99 % 1009,1 hPa 0,0 l/m 0 min 0 min 0 W/m 12,9 km/h (3 Bft) 100,00 %
27.09.2019 06:18 13,6 C 12,8 C 16,1 C 99 % 1009,1 hPa 0,0 l/m 0 min 0 min 0 W/m 3,2 km/h (1 Bft) 100,00 %
27.09.2019 06:20 13,6 C 12,8 C 16,1 C 99 % 1009,1 hPa 0,0 l/m 0 min 0 min 0 W/m 3,2 km/h (1 Bft) 100,00 %
27.09.2019 06:22 13,6 C 12,8 C 16,1 C 99 % 1009,0 hPa 0,0 l/m 0 min 0 min 0 W/m 6,4 km/h (2 Bft) 100,00 %
27.09.2019 06:24 13,6 C 12,8 C 16,1 C 99 % 1009,0 hPa 0,0 l/m 0 min 0 min 0 W/m 3,2 km/h (1 Bft) 100,00 %
27.09.2019 06:26 13,6 C 12,2 C 16,1 C 99 % 1009,0 hPa 0,0 l/m 0 min 0 min 0 W/m 6,4 km/h (2 Bft) 100,00 %
27.09.2019 06:28 13,6 C 12,2 C 16,1 C 99 % 1009,1 hPa 0,0 l/m 0 min 0 min 0 W/m 6,4 km/h (2 Bft) 100,00 %
27.09.2019 06:30 13,6 C 12,2 C 16,1 C 99 % 1009,1 hPa 0,0 l/m 0 min 0 min 0 W/m 3,2 km/h (1 Bft) 100,00 %
27.09.2019 06:32 13,5 C 12,2 C 16,1 C 99 % 1009,0 hPa 0,0 l/m 0 min 0 min 0 W/m 3,2 km/h (1 Bft) 100,00 %
27.09.2019 06:34 13,5 C 12,2 C 16,1 C 99 % 1009,1 hPa 0,0 l/m 0 min 0 min 0 W/m 6,4 km/h (2 Bft) 100,00 %
27.09.2019 06:36 13,5 C 12,2 C 16,1 C 99 % 1009,2 hPa 0,0 l/m 0 min 0 min 0 W/m 6,4 km/h (2 Bft) 100,00 %
27.09.2019 06:38 13,5 C 12,2 C 16,1 C 99 % 1009,2 hPa 0,0 l/m 0 min 0 min 0 W/m 0,0 km/h (0 Bft) 97,87 %
27.09.2019 06:40 13,4 C 12,2 C 16,1 C 99 % 1009,2 hPa 0,0 l/m 0 min 0 min 0 W/m 3,2 km/h (1 Bft) 100,00 %
27.09.2019 06:42 13,4 C 12,2 C 16,1 C 99 % 1009,2 hPa 0,0 l/m 0 min 0 min 0 W/m 0,0 km/h (0 Bft) 97,87 %
27.09.2019 06:44 13,4 C 12,2 C 16,1 C 99 % 1009,2 hPa 0,0 l/m 0 min 0 min 0 W/m 3,2 km/h (1 Bft) 100,00 %
27.09.2019 06:46 13,4 C 12,2 C 16,1 C 99 % 1009,2 hPa 0,0 l/m 0 min 0 min 0 W/m 3,2 km/h (1 Bft) 100,00 %
27.09.2019 06:48 13,4 C 12,2 C 16,1 C 99 % 1009,2 hPa 0,0 l/m 0 min 0 min 0 W/m 6,4 km/h (2 Bft) 97,87 %
27.09.2019 06:50 13,4 C 12,2 C 16,1 C 99 % 1009,2 hPa 0,0 l/m 0 min 0 min 0 W/m 16,1 km/h (3 Bft) 100,00 %
27.09.2019 06:52 13,4 C 12,2 C 16,1 C 99 % 1009,2 hPa 0,0 l/m 0 min 0 min 0 W/m 6,4 km/h (2 Bft) 100,00 %
27.09.2019 06:54 13,4 C 12,2 C 16,1 C 99 % 1009,2 hPa 0,0 l/m 0 min 0 min 0 W/m 3,2 km/h (1 Bft) 100,00 %
27.09.2019 06:56 13,3 C 12,2 C 16,1 C 99 % 1009,2 hPa 0,0 l/m 0 min 0 min 0 W/m 6,4 km/h (2 Bft) 97,87 %
27.09.2019 06:58 13,3 C 12,2 C 16,1 C 99 % 1009,2 hPa 0,0 l/m 0 min 0 min 0 W/m 6,4 km/h (2 Bft) 100,00 %
27.09.2019 07:00 13,3 C 12,2 C 16,1 C 99 % 1009,2 hPa 0,0 l/m 0 min 0 min 0 W/m 3,2 km/h (1 Bft) 97,87 %
27.09.2019 07:02 13,3 C 12,2 C 16,1 C 99 % 1009,2 hPa 0,0 l/m 0 min 0 min 0 W/m 3,2 km/h (1 Bft) 100,00 %
27.09.2019 07:04 13,3 C 12,2 C 16,1 C 99 % 1009,2 hPa 0,0 l/m 0 min 0 min 0 W/m 3,2 km/h (1 Bft) 97,87 %
27.09.2019 07:06 13,3 C 12,2 C 16,1 C 99 % 1009,1 hPa 0,0 l/m 0 min 0 min 0 W/m 3,2 km/h (1 Bft) 100,00 %
27.09.2019 07:08 13,3 C 12,2 C 16,1 C 99 % 1009,1 hPa 0,0 l/m 0 min 0 min 0 W/m 3,2 km/h (1 Bft) 100,00 %
27.09.2019 07:10 13,3 C 12,2 C 16,1 C 99 % 1009,2 hPa 0,0 l/m 0 min 0 min 0 W/m 3,2 km/h (1 Bft) 100,00 %
27.09.2019 07:12 13,3 C 12,2 C 16,1 C 99 % 1009,2 hPa 0,0 l/m 0 min 0 min 0 W/m 3,2 km/h (1 Bft) 97,87 %
27.09.2019 07:14 13,3 C 12,2 C 16,1 C 99 % 1009,1 hPa 0,0 l/m 0 min 0 min 0 W/m 6,4 km/h (2 Bft) 100,00 %
27.09.2019 07:16 13,3 C 12,2 C 16,1 C 99 % 1009,1 hPa 0,0 l/m 0 min 0 min 0 W/m 6,4 km/h (2 Bft) 100,00 %
27.09.2019 07:18 13,2 C 12,2 C 16,1 C 99 % 1009,1 hPa 0,0 l/m 0 min 0 min 0 W/m 3,2 km/h (1 Bft) 100,00 %
27.09.2019 07:20 13,2 C 12,2 C 16,1 C 99 % 1009,1 hPa 0,0 l/m 0 min 0 min 0 W/m 3,2 km/h (1 Bft) 100,00 %
27.09.2019 07:22 13,2 C 12,2 C 16,1 C 99 % 1009,1 hPa 0,0 l/m 0 min 0 min 0 W/m 6,4 km/h (2 Bft) 97,87 %
27.09.2019 07:24 13,2 C 12,2 C 16,1 C 99 % 1009,1 hPa 0,0 l/m 0 min 0 min 0 W/m 6,4 km/h (2 Bft) 97,87 %
27.09.2019 07:26 13,2 C 12,2 C 16,1 C 99 % 1009,1 hPa 0,0 l/m 0 min 0 min 0 W/m 6,4 km/h (2 Bft) 95,74 %
27.09.2019 07:28 13,2 C 12,2 C 16,1 C 99 % 1009,1 hPa 0,0 l/m 0 min 0 min 0 W/m 6,4 km/h (2 Bft) 95,74 %
27.09.2019 07:30 13,2 C 12,2 C 16,1 C 99 % 1009,1 hPa 0,0 l/m 0 min 0 min 0 W/m 3,2 km/h (1 Bft) 93,48 %
27.09.2019 07:32 13,2 C 12,2 C 16,1 C 99 % 1009,0 hPa 0,0 l/m 0 min 0 min 0 W/m 3,2 km/h (1 Bft) 97,87 %
27.09.2019 07:34 13,2 C 12,2 C 16,1 C 99 % 1009,1 hPa 0,0 l/m 0 min 0 min 0 W/m 3,2 km/h (1 Bft) 95,74 %
27.09.2019 07:36 13,2 C 12,2 C 16,1 C 99 % 1009,1 hPa 0,0 l/m 0 min 0 min 0 W/m 3,2 km/h (1 Bft) 91,49 %
27.09.2019 07:38 13,2 C 12,2 C 16,1 C 99 % 1009,1 hPa 0,0 l/m 0 min 0 min 0 W/m 3,2 km/h (1 Bft) 93,62 %
27.09.2019 07:40 13,2 C 12,2 C 16,1 C 99 % 1009,2 hPa 0,0 l/m 0 min 0 min 0 W/m 3,2 km/h (1 Bft) 95,74 %
27.09.2019 07:42 13,2 C 12,2 C 16,1 C 99 % 1009,2 hPa 0,0 l/m 0 min 0 min 0 W/m 3,2 km/h (1 Bft) 93,48 %
27.09.2019 07:44 13,2 C 12,2 C 16,1 C 99 % 1009,1 hPa 0,0 l/m 0 min 0 min 3 W/m 3,2 km/h (1 Bft) 93,62 %
27.09.2019 07:46 13,2 C 12,2 C 16,1 C 99 % 1009,1 hPa 0,0 l/m 0 min 0 min 5 W/m 6,4 km/h (2 Bft) 93,62 %
27.09.2019 07:48 13,2 C 12,2 C 16,1 C 99 % 1009,1 hPa 0,0 l/m 0 min 0 min 5 W/m 3,2 km/h (1 Bft) 95,74 %
27.09.2019 07:50 13,2 C 12,2 C 16,1 C 99 % 1009,2 hPa 0,0 l/m 0 min 0 min 5 W/m 3,2 km/h (1 Bft) 93,62 %
27.09.2019 07:52 13,2 C 12,2 C 16,1 C 99 % 1009,2 hPa 0,0 l/m 0 min 0 min 6 W/m 3,2 km/h (1 Bft) 93,48 %
27.09.2019 07:54 13,2 C 12,2 C 16,1 C 99 % 1009,1 hPa 0,0 l/m 0 min 0 min 7 W/m 3,2 km/h (1 Bft) 93,62 %
27.09.2019 07:56 13,2 C 12,2 C 16,1 C 99 % 1009,1 hPa 0,0 l/m 0 min 0 min 9 W/m 0,0 km/h (0 Bft) 91,49 %
27.09.2019 07:58 13,2 C 12,2 C 16,1 C 99 % 1009,2 hPa 0,0 l/m 0 min 0 min 11 W/m 0,0 km/h (0 Bft) 93,62 %
27.09.2019 08:00 13,2 C 12,2 C 16,1 C 99 % 1009,2 hPa 0,0 l/m 0 min 0 min 11 W/m 0,0 km/h (0 Bft) 93,62 %
27.09.2019 08:02 13,2 C 12,2 C 16,1 C 99 % 1009,1 hPa 0,0 l/m 0 min 0 min 12 W/m 3,2 km/h (1 Bft) 93,62 %
27.09.2019 08:04 13,2 C 12,2 C 16,1 C 99 % 1009,2 hPa 0,0 l/m 0 min 0 min 12 W/m 6,4 km/h (2 Bft) 93,48 %
27.09.2019 08:06 13,2 C 12,2 C 16,1 C 99 % 1009,2 hPa 0,0 l/m 0 min 0 min 12 W/m 3,2 km/h (1 Bft) 93,62 %
27.09.2019 08:08 13,2 C 12,2 C 16,1 C 99 % 1009,2 hPa 0,0 l/m 0 min 0 min 13 W/m 3,2 km/h (1 Bft) 91,49 %
27.09.2019 08:10 13,2 C 12,2 C 16,1 C 99 % 1009,3 hPa 0,0 l/m 0 min 0 min 15 W/m 0,0 km/h (0 Bft) 93,62 %
27.09.2019 08:12 13,2 C 12,2 C 16,1 C 99 % 1009,3 hPa 0,0 l/m 0 min 0 min 18 W/m 3,2 km/h (1 Bft) 93,62 %
27.09.2019 08:14 13,2 C 12,2 C 16,1 C 99 % 1009,2 hPa 0,0 l/m 0 min 0 min 19 W/m 0,0 km/h (0 Bft) 93,62 %
27.09.2019 08:16 13,2 C 12,2 C 16,1 C 99 % 1009,2 hPa 0,0 l/m 0 min 0 min 19 W/m 3,2 km/h (1 Bft) 93,48 %
27.09.2019 08:18 13,2 C 12,2 C 16,1 C 99 % 1009,3 hPa 0,0 l/m 0 min 0 min 18 W/m 0,0 km/h (0 Bft) 95,74 %
27.09.2019 08:20 13,2 C 12,2 C 16,1 C 99 % 1009,3 hPa 0,0 l/m 0 min 0 min 18 W/m 0,0 km/h (0 Bft) 97,87 %
27.09.2019 08:22 13,2 C 12,2 C 16,1 C 99 % 1009,3 hPa 0,0 l/m 0 min 0 min 18 W/m 0,0 km/h (0 Bft) 97,87 %
27.09.2019 08:24 13,2 C 12,2 C 16,1 C 99 % 1009,3 hPa 0,0 l/m 0 min 0 min 18 W/m 0,0 km/h (0 Bft) 53,33 %
27.09.2019 08:26 13,2 C 12,2 C 16,1 C 99 % 1009,3 hPa 0,0 l/m 0 min 0 min 20 W/m 0,0 km/h (0 Bft) 95,74 %
27.09.2019 08:28 13,2 C 12,2 C 16,1 C 99 % 1009,2 hPa 0,0 l/m 0 min 0 min 22 W/m 3,2 km/h (1 Bft) 97,83 %
27.09.2019 08:30 13,2 C 12,2 C 16,1 C 99 % 1009,2 hPa 0,0 l/m 0 min 0 min 25 W/m 0,0 km/h (0 Bft) 97,87 %
27.09.2019 08:32 13,2 C 12,2 C 16,1 C 99 % 1009,3 hPa 0,0 l/m 0 min 0 min 29 W/m 3,2 km/h (1 Bft) 97,87 %
27.09.2019 08:34 13,2 C 12,2 C 16,1 C 99 % 1009,3 hPa 0,0 l/m 0 min 0 min 32 W/m 3,2 km/h (1 Bft) 95,74 %
27.09.2019 08:36 13,2 C 12,2 C 16,1 C 99 % 1009,3 hPa 0,0 l/m 0 min 0 min 28 W/m 3,2 km/h (1 Bft) 100,00 %
27.09.2019 08:38 13,2 C 12,2 C 16,1 C 99 % 1009,3 hPa 0,0 l/m 0 min 0 min 29 W/m 6,4 km/h (2 Bft) 100,00 %
27.09.2019 08:40 13,2 C 12,2 C 16,1 C 99 % 1009,3 hPa 0,0 l/m 0 min 0 min 32 W/m 3,2 km/h (1 Bft) 100,00 %
27.09.2019 08:42 13,2 C 12,2 C 16,1 C 99 % 1009,4 hPa 0,0 l/m 0 min 0 min 30 W/m 12,9 km/h (3 Bft) 100,00 %
27.09.2019 08:44 13,2 C 12,2 C 16,1 C 99 % 1009,3 hPa 0,0 l/m 0 min 0 min 32 W/m 16,1 km/h (3 Bft) 100,00 %
27.09.2019 08:46 13,2 C 12,2 C 16,1 C 99 % 1009,4 hPa 0,0 l/m 0 min 0 min 35 W/m 12,9 km/h (3 Bft) 100,00 %
27.09.2019 08:48 13,1 C 12,2 C 16,1 C 99 % 1009,4 hPa 0,0 l/m 0 min 0 min 37 W/m 6,4 km/h (2 Bft) 100,00 %
27.09.2019 08:50 13,1 C 12,2 C 16,1 C 99 % 1009,4 hPa 0,0 l/m 0 min 0 min 37 W/m 12,9 km/h (3 Bft) 100,00 %
27.09.2019 08:52 13,1 C 12,2 C 16,1 C 99 % 1009,4 hPa 0,0 l/m 0 min 0 min 39 W/m 6,4 km/h (2 Bft) 100,00 %
27.09.2019 08:54 13,1 C 12,2 C 16,1 C 99 % 1009,4 hPa 0,0 l/m 0 min 0 min 41 W/m 12,9 km/h (3 Bft) 100,00 %
27.09.2019 08:56 13,1 C 12,2 C 16,1 C 99 % 1009,4 hPa 0,0 l/m 0 min 0 min 42 W/m 3,2 km/h (1 Bft) 100,00 %
27.09.2019 08:58 13,1 C 12,2 C 16,1 C 99 % 1009,5 hPa 0,0 l/m 0 min 0 min 46 W/m 16,1 km/h (3 Bft) 100,00 %
27.09.2019 09:00 13,1 C 12,8 C 16,1 C 99 % 1009,5 hPa 0,0 l/m 0 min 0 min 52 W/m 16,1 km/h (3 Bft) 100,00 %
27.09.2019 09:02 13,1 C 12,8 C 16,1 C 99 % 1009,5 hPa 0,0 l/m 0 min 0 min 57 W/m 12,9 km/h (3 Bft) 97,87 %
27.09.2019 09:04 13,1 C 12,8 C 16,1 C 99 % 1009,5 hPa 0,0 l/m 0 min 0 min 58 W/m 12,9 km/h (3 Bft) 100,00 %
27.09.2019 09:06 13,1 C 12,8 C 16,1 C 99 % 1009,6 hPa 0,0 l/m 0 min 0 min 55 W/m 19,3 km/h (3 Bft) 100,00 %
27.09.2019 09:08 13,1 C 12,8 C 16,1 C 99 % 1009,5 hPa 0,0 l/m 0 min 0 min 63 W/m 16,1 km/h (3 Bft) 100,00 %
27.09.2019 09:10 13,1 C 12,8 C 16,1 C 99 % 1009,6 hPa 0,0 l/m 0 min 0 min 82 W/m 19,3 km/h (3 Bft) 100,00 %
27.09.2019 09:12 13,1 C 12,8 C 16,1 C 99 % 1009,6 hPa 0,0 l/m 0 min 0 min 99 W/m 16,1 km/h (3 Bft) 100,00 %
27.09.2019 09:14 13,1 C 13,3 C 16,1 C 99 % 1009,6 hPa 0,0 l/m 0 min 0 min 92 W/m 16,1 km/h (3 Bft) 100,00 %
27.09.2019 09:16 13,2 C 13,3 C 16,1 C 99 % 1009,5 hPa 0,0 l/m 0 min 0 min 93 W/m 12,9 km/h (3 Bft) 100,00 %
27.09.2019 09:18 13,2 C 13,3 C 16,1 C 99 % 1009,6 hPa 0,0 l/m 0 min 0 min 92 W/m 12,9 km/h (3 Bft) 97,87 %
27.09.2019 09:20 13,2 C 13,3 C 16,1 C 99 % 1009,5 hPa 0,0 l/m 0 min 0 min 80 W/m 12,9 km/h (3 Bft) 97,87 %
27.09.2019 09:22 13,3 C 13,3 C 16,1 C 99 % 1009,6 hPa 0,0 l/m 0 min 0 min 73 W/m 16,1 km/h (3 Bft) 100,00 %
27.09.2019 09:24 13,3 C 13,3 C 16,1 C 98 % 1009,6 hPa 0,0 l/m 0 min 0 min 81 W/m 19,3 km/h (3 Bft) 100,00 %
27.09.2019 09:26 13,3 C 13,3 C 16,1 C 99 % 1009,6 hPa 0,0 l/m 0 min 0 min 106 W/m 12,9 km/h (3 Bft) 100,00 %
27.09.2019 09:28 13,4 C 13,9 C 16,1 C 99 % 1009,7 hPa 0,0 l/m 2 min 0 min 152 W/m 19,3 km/h (3 Bft) 100,00 %
27.09.2019 09:30 13,4 C 13,9 C 16,1 C 99 % 1009,6 hPa 0,0 l/m 2 min 0 min 155 W/m 6,4 km/h (2 Bft) 97,87 %
27.09.2019 09:32 13,5 C 13,9 C 16,1 C 99 % 1009,7 hPa 0,0 l/m 2 min 0 min 160 W/m 12,9 km/h (3 Bft) 100,00 %
27.09.2019 09:34 13,6 C 13,9 C 16,1 C 99 % 1009,6 hPa 0,0 l/m 2 min 0 min 158 W/m 12,9 km/h (3 Bft) 100,00 %
27.09.2019 09:36 13,7 C 14,4 C 16,1 C 98 % 1009,6 hPa 0,0 l/m 0 min 0 min 153 W/m 6,4 km/h (2 Bft) 97,87 %
27.09.2019 09:38 13,7 C 14,4 C 16,1 C 99 % 1009,7 hPa 0,0 l/m 0 min 0 min 135 W/m 19,3 km/h (3 Bft) 100,00 %
27.09.2019 09:40 13,8 C 14,4 C 16,1 C 99 % 1009,6 hPa 0,0 l/m 0 min 0 min 124 W/m 12,9 km/h (3 Bft) 100,00 %
27.09.2019 09:42 13,8 C 13,9 C 16,1 C 99 % 1009,7 hPa 0,0 l/m 0 min 0 min 120 W/m 19,3 km/h (3 Bft) 100,00 %
27.09.2019 09:44 13,9 C 14,4 C 16,1 C 98 % 1009,6 hPa 0,0 l/m 0 min 0 min 139 W/m 25,7 km/h (4 Bft) 100,00 %
27.09.2019 09:46 13,9 C 14,4 C 16,1 C 98 % 1009,6 hPa 0,0 l/m 0 min 0 min 129 W/m 19,3 km/h (3 Bft) 97,87 %
27.09.2019 09:48 13,9 C 14,4 C 16,1 C 98 % 1009,5 hPa 0,0 l/m 0 min 0 min 127 W/m 22,5 km/h (4 Bft) 100,00 %
27.09.2019 09:50 14,0 C 14,4 C 16,1 C 98 % 1009,6 hPa 0,0 l/m 0 min 0 min 133 W/m 22,5 km/h (4 Bft) 100,00 %
27.09.2019 09:52 14,1 C 14,4 C 16,1 C 98 % 1009,7 hPa 0,0 l/m 0 min 0 min 138 W/m 16,1 km/h (3 Bft) 100,00 %
27.09.2019 09:54 14,1 C 15,0 C 16,1 C 98 % 1009,6 hPa 0,0 l/m 0 min 0 min 156 W/m 16,1 km/h (3 Bft) 100,00 %
27.09.2019 09:56 14,2 C 15,6 C 16,1 C 98 % 1009,7 hPa 0,0 l/m 0 min 0 min 164 W/m 22,5 km/h (4 Bft) 100,00 %
27.09.2019 09:58 14,2 C 15,6 C 16,1 C 98 % 1009,7 hPa 0,0 l/m 0 min 0 min 164 W/m 38,6 km/h (5 Bft) 100,00 %
27.09.2019 10:00 14,2 C 16,1 C 16,1 C 97 % 1009,7 hPa 0,0 l/m 2 min 0 min 187 W/m 22,5 km/h (4 Bft) 100,00 %
27.09.2019 10:02 14,2 C 17,2 C 16,1 C 97 % 1009,7 hPa 0,0 l/m 0 min 0 min 181 W/m 16,1 km/h (3 Bft) 95,65 %
27.09.2019 10:04 14,3 C 17,8 C 16,1 C 97 % 1009,7 hPa 0,0 l/m 2 min 0 min 318 W/m 22,5 km/h (4 Bft) 97,87 %
27.09.2019 10:06 14,4 C 16,7 C 16,1 C 97 % 1009,8 hPa 0,0 l/m 2 min 0 min 249 W/m 22,5 km/h (4 Bft) 100,00 %
27.09.2019 10:08 14,5 C 16,7 C 16,1 C 97 % 1009,8 hPa 0,0 l/m 2 min 0 min 247 W/m 25,7 km/h (4 Bft) 100,00 %
27.09.2019 10:10 14,6 C 16,1 C 16,1 C 97 % 1009,7 hPa 0,0 l/m 2 min 0 min 265 W/m 19,3 km/h (3 Bft) 97,87 %
27.09.2019 10:12 14,7 C 16,1 C 16,1 C 97 % 1009,7 hPa 0,0 l/m 0 min 0 min 185 W/m 22,5 km/h (4 Bft) 97,83 %
27.09.2019 10:14 14,7 C 17,2 C 16,1 C 97 % 1009,7 hPa 0,0 l/m 0 min 0 min 118 W/m 19,3 km/h (3 Bft) 95,74 %
27.09.2019 10:16 14,8 C 18,3 C 16,1 C 96 % 1009,7 hPa 0,0 l/m 2 min 0 min 349 W/m 16,1 km/h (3 Bft) 97,87 %
27.09.2019 10:18 14,9 C 18,3 C 16,1 C 96 % 1009,7 hPa 0,0 l/m 2 min 0 min 352 W/m 19,3 km/h (3 Bft) 95,74 %
27.09.2019 10:20 14,9 C 18,3 C 16,1 C 96 % 1009,7 hPa 0,0 l/m 2 min 0 min 341 W/m 25,7 km/h (4 Bft) 97,92 %
27.09.2019 10:22 15,1 C 17,8 C 16,1 C 96 % 1009,7 hPa 0,0 l/m 2 min 0 min 316 W/m 22,5 km/h (4 Bft) 97,87 %
27.09.2019 10:24 15,1 C 17,2 C 16,1 C 95 % 1009,7 hPa 0,0 l/m 2 min 0 min 263 W/m 19,3 km/h (3 Bft) 97,83 %
27.09.2019 10:26 15,2 C 16,7 C 16,1 C 95 % 1009,7 hPa 0,0 l/m 2 min 0 min 258 W/m 22,5 km/h (4 Bft) 95,74 %
27.09.2019 10:28 15,2 C 16,1 C 16,1 C 95 % 1009,7 hPa 0,0 l/m 0 min 0 min 194 W/m 38,6 km/h (5 Bft) 95,74 %
27.09.2019 10:30 15,3 C 16,1 C 16,1 C 94 % 1009,7 hPa 0,0 l/m 0 min 0 min 187 W/m 22,5 km/h (4 Bft) 95,74 %
27.09.2019 10:32 15,3 C 16,1 C 16,1 C 94 % 1009,7 hPa 0,0 l/m 0 min 0 min 142 W/m 19,3 km/h (3 Bft) 93,62 %
27.09.2019 10:34 15,4 C 15,6 C 16,1 C 94 % 1009,7 hPa 0,0 l/m 0 min 0 min 125 W/m 25,7 km/h (4 Bft) 95,74 %
27.09.2019 10:36 15,3 C 15,6 C 16,1 C 94 % 1009,7 hPa 0,2 l/m 0 min 0 min 126 W/m 25,7 km/h (4 Bft) 95,65 %
27.09.2019 10:38 15,3 C 15,6 C 16,1 C 93 % 1009,7 hPa 0,0 l/m 0 min 0 min 164 W/m 16,1 km/h (3 Bft) 95,74 %
27.09.2019 10:40 15,3 C 15,6 C 16,1 C 93 % 1009,7 hPa 0,0 l/m 0 min 0 min 177 W/m 22,5 km/h (4 Bft) 93,62 %
27.09.2019 10:42 15,4 C 16,1 C 16,1 C 93 % 1009,6 hPa 0,0 l/m 0 min 0 min 170 W/m 22,5 km/h (4 Bft) 95,74 %
27.09.2019 10:44 15,4 C 16,1 C 16,1 C 92 % 1009,6 hPa 0,0 l/m 0 min 0 min 181 W/m 19,3 km/h (3 Bft) 95,74 %
27.09.2019 10:46 15,4 C 16,1 C 16,1 C 92 % 1009,7 hPa 0,0 l/m 0 min 0 min 193 W/m 16,1 km/h (3 Bft) 95,74 %
27.09.2019 10:48 15,5 C 16,7 C 16,1 C 92 % 1009,7 hPa 0,0 l/m 0 min 0 min 216 W/m 22,5 km/h (4 Bft) 91,30 %
27.09.2019 10:50 15,5 C 16,1 C 16,1 C 92 % 1009,7 hPa 0,0 l/m 0 min 0 min 142 W/m 19,3 km/h (3 Bft) 95,74 %
27.09.2019 10:52 15,6 C 16,1 C 16,1 C 92 % 1009,7 hPa 0,0 l/m 0 min 0 min 124 W/m 22,5 km/h (4 Bft) 97,87 %
27.09.2019 10:54 15,6 C 15,6 C 16,1 C 91 % 1009,6 hPa 0,0 l/m 0 min 0 min 147 W/m 35,4 km/h (5 Bft) 97,87 %
27.09.2019 10:56 15,6 C 15,6 C 16,1 C 91 % 1009,6 hPa 0,0 l/m 0 min 0 min 129 W/m 16,1 km/h (3 Bft) 95,74 %
27.09.2019 10:58 15,6 C 15,6 C 16,1 C 91 % 1009,6 hPa 0,0 l/m 0 min 0 min 91 W/m 22,5 km/h (4 Bft) 93,62 %
27.09.2019 11:00 15,6 C 16,1 C 16,1 C 90 % 1009,6 hPa 0,0 l/m 0 min 0 min 120 W/m 22,5 km/h (4 Bft) 95,65 %
27.09.2019 11:02 15,6 C 17,2 C 16,1 C 90 % 1009,7 hPa 0,0 l/m 0 min 0 min 186 W/m 19,3 km/h (3 Bft) 95,74 %
27.09.2019 11:04 15,7 C 18,9 C 16,1 C 90 % 1009,6 hPa 0,0 l/m 2 min 0 min 528 W/m 25,7 km/h (4 Bft) 95,74 %
27.09.2019 11:06 15,7 C 18,9 C 16,1 C 91 % 1009,6 hPa 0,0 l/m 2 min 0 min 524 W/m 19,3 km/h (3 Bft) 95,74 %
27.09.2019 11:08 15,8 C 17,8 C 16,1 C 91 % 1009,5 hPa 0,0 l/m 2 min 0 min 389 W/m 19,3 km/h (3 Bft) 95,74 %
27.09.2019 11:10 15,9 C 17,8 C 16,1 C 91 % 1009,5 hPa 0,0 l/m 0 min 0 min 224 W/m 22,5 km/h (4 Bft) 95,74 %
27.09.2019 11:12 15,9 C 17,2 C 16,1 C 90 % 1009,5 hPa 0,0 l/m 2 min 0 min 318 W/m 19,3 km/h (3 Bft) 93,48 %
27.09.2019 11:14 16,0 C 17,2 C 16,1 C 90 % 1009,5 hPa 0,0 l/m 2 min 0 min 340 W/m 22,5 km/h (4 Bft) 93,62 %
27.09.2019 11:16 16,1 C 17,8 C 16,1 C 90 % 1009,4 hPa 0,0 l/m 2 min 0 min 299 W/m 25,7 km/h (4 Bft) 95,74 %
27.09.2019 11:18 16,1 C 17,8 C 16,1 C 89 % 1009,5 hPa 0,0 l/m 0 min 0 min 241 W/m 22,5 km/h (4 Bft) 95,74 %
27.09.2019 11:20 16,2 C 17,2 C 16,1 C 89 % 1009,6 hPa 0,0 l/m 0 min 0 min 219 W/m 35,4 km/h (5 Bft) 95,74 %
27.09.2019 11:22 16,2 C 17,2 C 16,1 C 88 % 1009,5 hPa 0,0 l/m 2 min 0 min 269 W/m 29,0 km/h (5 Bft) 95,65 %
27.09.2019 11:24 16,2 C 17,8 C 16,1 C 88 % 1009,5 hPa 0,0 l/m 2 min 0 min 267 W/m 16,1 km/h (3 Bft) 95,74 %
27.09.2019 11:26 16,3 C 18,3 C 16,1 C 88 % 1009,5 hPa 0,0 l/m 2 min 0 min 262 W/m 16,1 km/h (3 Bft) 97,87 %
27.09.2019 11:28 16,4 C 18,3 C 16,1 C 88 % 1009,4 hPa 0,0 l/m 0 min 0 min 207 W/m 12,9 km/h (3 Bft) 97,87 %
27.09.2019 11:30 16,4 C 18,9 C 16,1 C 88 % 1009,4 hPa 0,0 l/m 0 min 0 min 207 W/m 25,7 km/h (4 Bft) 95,74 %
27.09.2019 11:32 16,5 C 18,9 C 16,1 C 88 % 1009,4 hPa 0,0 l/m 0 min 0 min 222 W/m 16,1 km/h (3 Bft) 97,87 %
27.09.2019 11:34 16,6 C 18,9 C 16,1 C 88 % 1009,4 hPa 0,0 l/m 2 min 0 min 270 W/m 19,3 km/h (3 Bft) 97,83 %
27.09.2019 11:36 16,7 C 21,1 C 16,1 C 87 % 1009,4 hPa 0,0 l/m 2 min 0 min 470 W/m 19,3 km/h (3 Bft) 97,87 %
27.09.2019 11:38 16,8 C 20,0 C 16,1 C 87 % 1009,5 hPa 0,0 l/m 2 min 0 min 484 W/m 22,5 km/h (4 Bft) 97,92 %
27.09.2019 11:40 16,9 C 18,9 C 16,1 C 86 % 1009,4 hPa 0,0 l/m 0 min 0 min 225 W/m 19,3 km/h (3 Bft) 97,87 %
27.09.2019 11:42 16,9 C 18,9 C 16,1 C 86 % 1009,4 hPa 0,0 l/m 0 min 0 min 219 W/m 29,0 km/h (5 Bft) 97,62 %
27.09.2019 11:44 17,0 C 18,3 C 16,1 C 85 % 1009,4 hPa 0,0 l/m 0 min 0 min 212 W/m 16,1 km/h (3 Bft) 97,83 %
27.09.2019 11:46 17,0 C 17,8 C 16,1 C 84 % 1009,5 hPa 0,0 l/m 0 min 0 min 193 W/m 29,0 km/h (5 Bft) 97,87 %
27.09.2019 11:48 17,0 C 17,2 C 16,1 C 84 % 1009,5 hPa 0,0 l/m 0 min 0 min 157 W/m 19,3 km/h (3 Bft) 97,87 %
27.09.2019 11:50 17,0 C 17,8 C 16,1 C 83 % 1009,4 hPa 0,0 l/m 0 min 0 min 158 W/m 29,0 km/h (5 Bft) 97,87 %
27.09.2019 11:52 17,0 C 17,2 C 16,1 C 83 % 1009,5 hPa 0,0 l/m 0 min 0 min 123 W/m 19,3 km/h (3 Bft) 97,87 %
27.09.2019 11:54 17,0 C 17,2 C 16,1 C 83 % 1009,4 hPa 0,0 l/m 0 min 0 min 119 W/m 16,1 km/h (3 Bft) 97,87 %
27.09.2019 11:56 16,9 C 18,9 C 16,1 C 83 % 1009,4 hPa 0,0 l/m 0 min 0 min 137 W/m 16,1 km/h (3 Bft) 97,83 %
27.09.2019 11:58 17,0 C 21,1 C 16,1 C 83 % 1009,5 hPa 0,0 l/m 2 min 0 min 579 W/m 6,4 km/h (2 Bft) 95,74 %
27.09.2019 12:00 17,1 C 20,0 C 16,1 C 84 % 1009,4 hPa 0,0 l/m 2 min 0 min 599 W/m 19,3 km/h (3 Bft) 97,87 %
27.09.2019 12:02 17,2 C 18,9 C 16,1 C 84 % 1009,5 hPa 0,0 l/m 0 min 0 min 246 W/m 19,3 km/h (3 Bft) 97,87 %
27.09.2019 12:04 17,2 C 18,3 C 16,1 C 83 % 1009,6 hPa 0,0 l/m 0 min 0 min 254 W/m 25,7 km/h (4 Bft) 97,87 %
27.09.2019 12:08 17,3 C 20,0 C 16,1 C 83 % 1009,4 hPa 0,0 l/m 0 min 0 min 262 W/m 29,0 km/h (5 Bft) 97,03 %
27.09.2019 12:10 17,4 C 20,6 C 16,1 C 83 % 1009,4 hPa 0,0 l/m 0 min 0 min 264 W/m 12,9 km/h (3 Bft) 97,87 %
27.09.2019 12:12 17,4 C 20,0 C 16,1 C 83 % 1009,3 hPa 0,0 l/m 0 min 0 min 270 W/m 25,7 km/h (4 Bft) 100,00 %
27.09.2019 12:14 17,5 C 18,9 C 16,1 C 83 % 1009,4 hPa 0,0 l/m 0 min 0 min 270 W/m 19,3 km/h (3 Bft) 100,00 %
27.09.2019 12:16 17,6 C 20,0 C 16,1 C 82 % 1009,3 hPa 0,0 l/m 0 min 0 min 225 W/m 16,1 km/h (3 Bft) 100,00 %
27.09.2019 12:18 17,7 C 18,9 C 16,1 C 82 % 1009,3 hPa 0,0 l/m 0 min 0 min 227 W/m 12,9 km/h (3 Bft) 100,00 %
27.09.2019 12:20 17,7 C 18,9 C 16,1 C 82 % 1009,4 hPa 0,0 l/m 0 min 0 min 196 W/m 12,9 km/h (3 Bft) 100,00 %
27.09.2019 12:22 17,7 C 20,0 C 16,1 C 82 % 1009,4 hPa 0,0 l/m 0 min 0 min 226 W/m 12,9 km/h (3 Bft) 95,74 %
27.09.2019 12:24 17,8 C 20,6 C 16,1 C 82 % 1009,4 hPa 0,0 l/m 2 min 0 min 689 W/m 19,3 km/h (3 Bft) 100,00 %
27.09.2019 12:26 17,8 C 21,7 C 16,1 C 82 % 1009,3 hPa 0,0 l/m 2 min 0 min 478 W/m 6,4 km/h (2 Bft) 100,00 %
27.09.2019 12:28 17,9 C 22,8 C 16,1 C 82 % 1009,3 hPa 0,0 l/m 0 min 0 min 281 W/m 9,7 km/h (2 Bft) 100,00 %
27.09.2019 12:30 17,9 C 21,7 C 16,1 C 81 % 1009,3 hPa 0,0 l/m 2 min 0 min 681 W/m 19,3 km/h (3 Bft) 100,00 %
27.09.2019 12:32 18,0 C 20,6 C 16,1 C 81 % 1009,3 hPa 0,0 l/m 0 min 0 min 188 W/m 12,9 km/h (3 Bft) 97,83 %
27.09.2019 12:34 18,1 C 19,4 C 16,1 C 81 % 1009,3 hPa 0,0 l/m 0 min 0 min 180 W/m 19,3 km/h (3 Bft) 97,87 %
27.09.2019 12:36 18,1 C 21,1 C 16,1 C 81 % 1009,3 hPa 0,0 l/m 2 min 0 min 447 W/m 16,1 km/h (3 Bft) 97,87 %
27.09.2019 12:38 18,2 C 21,1 C 16,1 C 81 % 1009,4 hPa 0,0 l/m 2 min 0 min 809 W/m 16,1 km/h (3 Bft) 97,87 %
27.09.2019 12:40 18,2 C 22,2 C 16,1 C 80 % 1009,3 hPa 0,0 l/m 2 min 0 min 809 W/m 16,1 km/h (3 Bft) 95,74 %
27.09.2019 12:42 18,3 C 21,1 C 16,1 C 80 % 1009,5 hPa 0,0 l/m 2 min 0 min 712 W/m 19,3 km/h (3 Bft) 93,62 %
27.09.2019 12:44 18,3 C 19,4 C 16,1 C 80 % 1009,4 hPa 0,0 l/m 0 min 0 min 164 W/m 19,3 km/h (3 Bft) 97,83 %
27.09.2019 12:46 18,3 C 20,0 C 16,1 C 79 % 1009,3 hPa 0,0 l/m 0 min 0 min 197 W/m 16,1 km/h (3 Bft) 97,87 %
27.09.2019 12:48 18,3 C 18,9 C 16,1 C 79 % 1009,3 hPa 0,0 l/m 0 min 0 min 197 W/m 22,5 km/h (4 Bft) 95,74 %
27.09.2019 12:50 18,3 C 18,9 C 16,1 C 79 % 1009,2 hPa 0,0 l/m 0 min 0 min 163 W/m 16,1 km/h (3 Bft) 97,87 %
27.09.2019 12:52 18,3 C 20,0 C 16,1 C 79 % 1009,3 hPa 0,0 l/m 0 min 0 min 139 W/m 19,3 km/h (3 Bft) 97,87 %
27.09.2019 12:54 18,2 C 18,9 C 16,1 C 78 % 1009,3 hPa 0,0 l/m 0 min 0 min 139 W/m 29,0 km/h (5 Bft) 97,87 %
27.09.2019 12:56 18,2 C 18,3 C 16,1 C 78 % 1009,3 hPa 0,0 l/m 0 min 0 min 137 W/m 19,3 km/h (3 Bft) 97,83 %
27.09.2019 12:58 18,2 C 19,4 C 16,1 C 79 % 1009,3 hPa 0,0 l/m 0 min 0 min 155 W/m 16,1 km/h (3 Bft) 97,87 %
27.09.2019 13:00 18,2 C 21,7 C 16,1 C 79 % 1009,3 hPa 0,0 l/m 2 min 0 min 658 W/m 12,9 km/h (3 Bft) 97,87 %
27.09.2019 13:02 18,2 C 23,3 C 16,1 C 80 % 1009,2 hPa 0,0 l/m 2 min 0 min 673 W/m 9,7 km/h (2 Bft) 95,74 %
27.09.2019 13:04 18,3 C 23,9 C 16,1 C 80 % 1009,2 hPa 0,0 l/m 2 min 0 min 681 W/m 19,3 km/h (3 Bft) 97,87 %
27.09.2019 13:06 18,4 C 23,9 C 16,1 C 80 % 1009,2 hPa 0,0 l/m 2 min 0 min 714 W/m 22,5 km/h (4 Bft) 95,74 %
27.09.2019 13:08 18,5 C 23,9 C 16,1 C 79 % 1009,2 hPa 0,0 l/m 2 min 0 min 720 W/m 29,0 km/h (5 Bft) 97,83 %
27.09.2019 13:10 18,6 C 23,3 C 16,1 C 78 % 1009,3 hPa 0,0 l/m 2 min 0 min 762 W/m 22,5 km/h (4 Bft) 97,87 %
27.09.2019 13:12 18,7 C 23,3 C 16,1 C 78 % 1009,3 hPa 0,0 l/m 2 min 0 min 810 W/m 22,5 km/h (4 Bft) 97,87 %
27.09.2019 13:14 18,9 C 23,9 C 16,1 C 78 % 1009,3 hPa 0,0 l/m 2 min 0 min 817 W/m 22,5 km/h (4 Bft) 100,00 %
27.09.2019 13:16 19,0 C 25,0 C 16,1 C 77 % 1009,2 hPa 0,0 l/m 2 min 0 min 679 W/m 19,3 km/h (3 Bft) 97,87 %
27.09.2019 13:18 19,1 C 23,9 C 16,1 C 76 % 1009,3 hPa 0,0 l/m 2 min 0 min 647 W/m 16,1 km/h (3 Bft) 100,00 %
27.09.2019 13:20 19,2 C 26,1 C 16,1 C 76 % 1009,3 hPa 0,0 l/m 2 min 0 min 758 W/m 12,9 km/h (3 Bft) 95,74 %
27.09.2019 13:22 19,3 C 22,2 C 16,1 C 74 % 1009,3 hPa 0,0 l/m 2 min 0 min 782 W/m 35,4 km/h (5 Bft) 95,74 %
27.09.2019 13:24 19,4 C 21,7 C 16,1 C 73 % 1009,2 hPa 0,0 l/m 2 min 0 min 777 W/m 35,4 km/h (5 Bft) 97,87 %
27.09.2019 13:26 19,4 C 22,8 C 16,1 C 72 % 1009,2 hPa 0,0 l/m 2 min 0 min 775 W/m 16,1 km/h (3 Bft) 97,87 %
27.09.2019 13:28 19,5 C 23,3 C 16,1 C 73 % 1009,1 hPa 0,0 l/m 2 min 0 min 736 W/m 19,3 km/h (3 Bft) 97,87 %
27.09.2019 13:30 19,5 C 21,1 C 16,1 C 72 % 1009,2 hPa 0,0 l/m 2 min 0 min 420 W/m 35,4 km/h (5 Bft) 97,83 %
27.09.2019 13:32 19,5 C 20,6 C 16,1 C 72 % 1009,1 hPa 0,0 l/m 0 min 0 min 184 W/m 16,1 km/h (3 Bft) 93,62 %
27.09.2019 13:34 19,4 C 21,1 C 16,1 C 73 % 1009,1 hPa 0,0 l/m 0 min 0 min 192 W/m 12,9 km/h (3 Bft) 97,87 %
27.09.2019 13:36 19,5 C 22,8 C 16,1 C 74 % 1009,0 hPa 0,0 l/m 2 min 0 min 484 W/m 16,1 km/h (3 Bft) 97,87 %
27.09.2019 13:38 19,5 C 23,3 C 16,1 C 72 % 1009,2 hPa 0,0 l/m 2 min 0 min 724 W/m 22,5 km/h (4 Bft) 95,74 %
27.09.2019 13:40 19,6 C 23,3 C 16,1 C 71 % 1009,2 hPa 0,0 l/m 2 min 0 min 769 W/m 32,2 km/h (5 Bft) 97,87 %
27.09.2019 13:42 19,6 C 23,3 C 16,1 C 71 % 1009,1 hPa 0,0 l/m 2 min 0 min 778 W/m 29,0 km/h (5 Bft) 97,83 %
27.09.2019 13:44 19,7 C 24,4 C 16,1 C 72 % 1009,1 hPa 0,0 l/m 2 min 0 min 774 W/m 19,3 km/h (3 Bft) 97,87 %
27.09.2019 13:46 19,8 C 23,9 C 16,1 C 71 % 1009,1 hPa 0,0 l/m 2 min 0 min 755 W/m 19,3 km/h (3 Bft) 95,74 %
27.09.2019 13:48 19,8 C 25,6 C 16,1 C 72 % 1009,1 hPa 0,0 l/m 2 min 0 min 756 W/m 22,5 km/h (4 Bft) 97,87 %
27.09.2019 13:50 19,9 C 25,6 C 16,1 C 71 % 1009,0 hPa 0,0 l/m 2 min 0 min 734 W/m 19,3 km/h (3 Bft) 97,87 %
27.09.2019 13:52 19,9 C 22,8 C 16,1 C 70 % 1009,0 hPa 0,0 l/m 2 min 0 min 493 W/m 19,3 km/h (3 Bft) 97,87 %
27.09.2019 13:54 20,0 C 22,8 C 16,1 C 70 % 1009,0 hPa 0,0 l/m 0 min 0 min 179 W/m 22,5 km/h (4 Bft) 97,83 %
27.09.2019 13:56 20,0 C 22,8 C 16,1 C 71 % 1009,0 hPa 0,0 l/m 0 min 0 min 179 W/m 16,1 km/h (3 Bft) 95,74 %
27.09.2019 13:58 20,0 C 21,7 C 16,1 C 71 % 1009,0 hPa 0,0 l/m 0 min 0 min 174 W/m 12,9 km/h (3 Bft) 97,87 %
27.09.2019 14:00 20,0 C 20,6 C 16,1 C 71 % 1009,0 hPa 0,0 l/m 0 min 0 min 118 W/m 12,9 km/h (3 Bft) 95,74 %
27.09.2019 14:02 19,9 C 19,4 C 16,1 C 71 % 1009,1 hPa 0,0 l/m 0 min 0 min 112 W/m 19,3 km/h (3 Bft) 97,87 %
27.09.2019 14:04 19,8 C 18,9 C 16,1 C 71 % 1009,1 hPa 0,0 l/m 0 min 0 min 131 W/m 16,1 km/h (3 Bft) 97,83 %
27.09.2019 14:06 19,7 C 18,9 C 16,1 C 71 % 1009,1 hPa 0,0 l/m 0 min 0 min 137 W/m 9,7 km/h (2 Bft) 97,87 %
27.09.2019 14:08 19,6 C 18,9 C 16,1 C 71 % 1009,0 hPa 0,0 l/m 0 min 0 min 136 W/m 12,9 km/h (3 Bft) 100,00 %
27.09.2019 14:10 19,5 C 18,9 C 16,1 C 71 % 1009,1 hPa 0,0 l/m 0 min 0 min 140 W/m 16,1 km/h (3 Bft) 100,00 %
27.09.2019 14:12 19,4 C 18,9 C 16,1 C 72 % 1009,0 hPa 0,0 l/m 0 min 0 min 129 W/m 6,4 km/h (2 Bft) 100,00 %
27.09.2019 14:14 19,3 C 18,9 C 16,1 C 72 % 1009,0 hPa 0,0 l/m 0 min 0 min 114 W/m 6,4 km/h (2 Bft) 100,00 %
27.09.2019 14:16 19,2 C 19,4 C 16,1 C 73 % 1009,0 hPa 0,0 l/m 0 min 0 min 121 W/m 9,7 km/h (2 Bft) 97,83 %
27.09.2019 14:18 19,2 C 21,1 C 16,1 C 73 % 1009,1 hPa 0,0 l/m 0 min 0 min 121 W/m 16,1 km/h (3 Bft) 100,00 %
27.09.2019 14:20 19,2 C 21,7 C 16,1 C 73 % 1009,1 hPa 0,0 l/m 2 min 0 min 634 W/m 16,1 km/h (3 Bft) 100,00 %
27.09.2019 14:22 19,2 C 20,6 C 16,1 C 73 % 1009,0 hPa 0,0 l/m 0 min 0 min 218 W/m 6,4 km/h (2 Bft) 100,00 %
27.09.2019 14:24 19,2 C 20,0 C 16,1 C 73 % 1009,0 hPa 0,0 l/m 0 min 0 min 125 W/m 16,1 km/h (3 Bft) 100,00 %
27.09.2019 14:26 19,2 C 21,1 C 16,1 C 73 % 1009,0 hPa 0,0 l/m 0 min 0 min 162 W/m 19,3 km/h (3 Bft) 97,87 %
27.09.2019 14:28 19,2 C 20,6 C 16,1 C 73 % 1009,0 hPa 0,0 l/m 0 min 0 min 158 W/m 12,9 km/h (3 Bft) 100,00 %
27.09.2019 14:30 19,2 C 19,4 C 16,1 C 72 % 1008,9 hPa 0,0 l/m 0 min 0 min 109 W/m 22,5 km/h (4 Bft) 100,00 %
27.09.2019 14:32 19,1 C 18,9 C 16,1 C 71 % 1009,0 hPa 0,0 l/m 0 min 0 min 114 W/m 12,9 km/h (3 Bft) 100,00 %
27.09.2019 14:34 19,1 C 19,4 C 16,1 C 71 % 1009,0 hPa 0,0 l/m 0 min 0 min 115 W/m 16,1 km/h (3 Bft) 100,00 %
27.09.2019 14:36 19,1 C 21,7 C 16,1 C 71 % 1008,9 hPa 0,0 l/m 0 min 0 min 123 W/m 12,9 km/h (3 Bft) 100,00 %
27.09.2019 14:38 19,1 C 23,3 C 16,1 C 73 % 1008,9 hPa 0,0 l/m 2 min 0 min 373 W/m 6,4 km/h (2 Bft) 100,00 %
27.09.2019 14:40 19,1 C 22,2 C 16,1 C 74 % 1008,9 hPa 0,0 l/m 2 min 0 min 397 W/m 16,1 km/h (3 Bft) 95,65 %
27.09.2019 14:42 19,2 C 20,6 C 16,1 C 73 % 1008,9 hPa 0,0 l/m 0 min 0 min 131 W/m 12,9 km/h (3 Bft) 100,00 %
27.09.2019 14:44 19,2 C 20,0 C 16,1 C 73 % 1008,8 hPa 0,0 l/m 0 min 0 min 194 W/m 16,1 km/h (3 Bft) 100,00 %
27.09.2019 14:46 19,2 C 22,2 C 16,1 C 73 % 1008,8 hPa 0,0 l/m 0 min 0 min 207 W/m 9,7 km/h (2 Bft) 100,00 %
27.09.2019 14:48 19,2 C 23,9 C 16,1 C 74 % 1008,8 hPa 0,0 l/m 2 min 0 min 355 W/m 12,9 km/h (3 Bft) 100,00 %
27.09.2019 14:50 19,3 C 23,9 C 16,1 C 72 % 1008,9 hPa 0,0 l/m 2 min 0 min 761 W/m 22,5 km/h (4 Bft) 97,83 %
27.09.2019 14:52 19,4 C 23,3 C 16,1 C 73 % 1009,0 hPa 0,0 l/m 2 min 0 min 763 W/m 16,1 km/h (3 Bft) 97,87 %
27.09.2019 14:54 19,5 C 22,2 C 16,1 C 70 % 1009,0 hPa 0,0 l/m 2 min 0 min 754 W/m 35,4 km/h (5 Bft) 100,00 %
27.09.2019 14:56 19,6 C 22,8 C 16,1 C 71 % 1008,9 hPa 0,0 l/m 2 min 0 min 729 W/m 16,1 km/h (3 Bft) 97,87 %
27.09.2019 14:58 19,7 C 23,3 C 16,1 C 71 % 1009,0 hPa 0,0 l/m 2 min 0 min 705 W/m 22,5 km/h (4 Bft) 95,74 %
27.09.2019 15:00 19,7 C 23,3 C 16,1 C 69 % 1009,0 hPa 0,0 l/m 2 min 0 min 678 W/m 32,2 km/h (5 Bft) 91,30 %
27.09.2019 15:02 19,8 C 23,9 C 16,1 C 69 % 1009,0 hPa 0,0 l/m 2 min 0 min 647 W/m 19,3 km/h (3 Bft) 95,16 %
27.09.2019 15:04 19,9 C 23,9 C 16,1 C 69 % 1008,9 hPa 0,0 l/m 2 min 0 min 640 W/m 19,3 km/h (3 Bft) 97,87 %
27.09.2019 15:06 20,0 C 23,9 C 16,1 C 69 % 1008,9 hPa 0,0 l/m 2 min 0 min 640 W/m 25,7 km/h (4 Bft) 97,87 %
27.09.2019 15:08 20,1 C 23,3 C 16,1 C 68 % 1009,1 hPa 0,0 l/m 2 min 0 min 639 W/m 38,6 km/h (5 Bft) 95,74 %
27.09.2019 15:10 20,1 C 23,9 C 16,1 C 68 % 1008,9 hPa 0,0 l/m 2 min 0 min 638 W/m 19,3 km/h (3 Bft) 93,62 %
27.09.2019 15:12 20,2 C 23,9 C 16,1 C 69 % 1009,1 hPa 0,0 l/m 2 min 0 min 622 W/m 19,3 km/h (3 Bft) 95,74 %
27.09.2019 15:14 20,2 C 24,4 C 16,1 C 68 % 1008,9 hPa 0,0 l/m 2 min 0 min 620 W/m 16,1 km/h (3 Bft) 97,83 %
27.09.2019 15:16 20,3 C 23,9 C 16,1 C 68 % 1008,9 hPa 0,0 l/m 2 min 0 min 614 W/m 22,5 km/h (4 Bft) 93,62 %
27.09.2019 15:18 20,3 C 23,9 C 16,1 C 67 % 1008,8 hPa 0,0 l/m 2 min 0 min 610 W/m 25,7 km/h (4 Bft) 95,74 %
27.09.2019 15:20 20,4 C 25,0 C 16,1 C 67 % 1008,9 hPa 0,0 l/m 2 min 0 min 630 W/m 22,5 km/h (4 Bft) 95,74 %
27.09.2019 15:22 20,4 C 23,9 C 16,1 C 66 % 1008,9 hPa 0,0 l/m 2 min 0 min 624 W/m 19,3 km/h (3 Bft) 95,74 %
27.09.2019 15:24 20,5 C 24,4 C 16,1 C 66 % 1008,9 hPa 0,0 l/m 2 min 0 min 614 W/m 12,9 km/h (3 Bft) 95,74 %
27.09.2019 15:26 20,6 C 25,0 C 16,1 C 66 % 1008,8 hPa 0,0 l/m 2 min 0 min 605 W/m 12,9 km/h (3 Bft) 95,65 %
27.09.2019 15:28 20,6 C 25,0 C 16,1 C 66 % 1008,9 hPa 0,0 l/m 2 min 0 min 607 W/m 16,1 km/h (3 Bft) 93,62 %
27.09.2019 15:30 20,7 C 25,0 C 16,1 C 66 % 1008,9 hPa 0,0 l/m 2 min 0 min 624 W/m 12,9 km/h (3 Bft) 95,74 %
27.09.2019 15:32 20,7 C 26,1 C 16,1 C 66 % 1008,8 hPa 0,0 l/m 2 min 0 min 634 W/m 16,1 km/h (3 Bft) 95,74 %
27.09.2019 15:34 20,8 C 25,6 C 16,1 C 66 % 1008,9 hPa 0,0 l/m 2 min 0 min 618 W/m 16,1 km/h (3 Bft) 95,74 %
27.09.2019 15:36 20,9 C 26,1 C 16,1 C 66 % 1008,9 hPa 0,0 l/m 2 min 0 min 598 W/m 12,9 km/h (3 Bft) 95,65 %
27.09.2019 15:38 21,0 C 22,8 C 16,1 C 65 % 1008,9 hPa 0,0 l/m 2 min 0 min 565 W/m 16,1 km/h (3 Bft) 97,87 %
27.09.2019 15:40 20,9 C 21,1 C 16,1 C 64 % 1008,9 hPa 0,0 l/m 0 min 0 min 121 W/m 12,9 km/h (3 Bft) 97,87 %
27.09.2019 15:42 20,8 C 20,6 C 16,1 C 63 % 1008,9 hPa 0,0 l/m 0 min 0 min 146 W/m 12,9 km/h (3 Bft) 97,87 %
27.09.2019 15:44 20,6 C 20,6 C 16,1 C 64 % 1008,9 hPa 0,0 l/m 2 min 0 min 300 W/m 22,5 km/h (4 Bft) 97,87 %
27.09.2019 15:46 20,5 C 20,6 C 16,1 C 65 % 1008,9 hPa 0,0 l/m 2 min 0 min 259 W/m 16,1 km/h (3 Bft) 95,65 %
27.09.2019 15:48 20,5 C 22,8 C 16,1 C 65 % 1008,9 hPa 0,0 l/m 2 min 0 min 340 W/m 12,9 km/h (3 Bft) 97,83 %
27.09.2019 15:50 20,4 C 23,3 C 16,1 C 65 % 1008,9 hPa 0,0 l/m 2 min 0 min 611 W/m 16,1 km/h (3 Bft) 97,87 %
27.09.2019 15:52 20,4 C 22,2 C 16,1 C 65 % 1008,8 hPa 0,0 l/m 2 min 0 min 425 W/m 22,5 km/h (4 Bft) 97,87 %
27.09.2019 15:54 20,4 C 21,1 C 16,1 C 64 % 1008,8 hPa 0,0 l/m 0 min 0 min 131 W/m 25,7 km/h (4 Bft) 95,74 %
27.09.2019 15:56 20,3 C 20,0 C 16,1 C 64 % 1008,9 hPa 0,0 l/m 0 min 0 min 217 W/m 41,8 km/h (6 Bft) 97,87 %
27.09.2019 15:58 20,2 C 19,4 C 16,1 C 65 % 1008,8 hPa 0,0 l/m 0 min 0 min 162 W/m 19,3 km/h (3 Bft) 97,87 %
27.09.2019 16:00 20,1 C 20,6 C 16,1 C 65 % 1008,8 hPa 0,0 l/m 0 min 0 min 175 W/m 19,3 km/h (3 Bft) 97,83 %
27.09.2019 16:02 20,1 C 22,8 C 16,1 C 66 % 1008,8 hPa 0,0 l/m 2 min 0 min 598 W/m 12,9 km/h (3 Bft) 95,74 %
27.09.2019 16:04 20,1 C 23,9 C 16,1 C 67 % 1008,7 hPa 0,0 l/m 2 min 0 min 636 W/m 19,3 km/h (3 Bft) 97,87 %
27.09.2019 16:06 20,2 C 24,4 C 16,1 C 67 % 1008,7 hPa 0,0 l/m 2 min 0 min 585 W/m 16,1 km/h (3 Bft) 97,87 %
27.09.2019 16:08 20,3 C 22,8 C 16,1 C 65 % 1009,0 hPa 0,0 l/m 2 min 0 min 513 W/m 45,1 km/h (6 Bft) 97,87 %
27.09.2019 16:10 20,3 C 22,2 C 16,1 C 64 % 1008,8 hPa 0,0 l/m 2 min 0 min 504 W/m 35,4 km/h (5 Bft) 97,87 %
27.09.2019 16:12 20,3 C 22,8 C 16,1 C 65 % 1008,7 hPa 0,0 l/m 2 min 0 min 514 W/m 12,9 km/h (3 Bft) 97,83 %
27.09.2019 16:14 20,3 C 22,8 C 16,1 C 64 % 1008,7 hPa 0,0 l/m 2 min 0 min 520 W/m 22,5 km/h (4 Bft) 95,74 %
27.09.2019 16:16 20,3 C 23,3 C 16,1 C 65 % 1008,7 hPa 0,0 l/m 2 min 0 min 515 W/m 22,5 km/h (4 Bft) 97,87 %
27.09.2019 16:18 20,4 C 23,3 C 16,1 C 65 % 1008,8 hPa 0,0 l/m 2 min 0 min 503 W/m 35,4 km/h (5 Bft) 97,87 %
27.09.2019 16:20 20,4 C 23,3 C 16,1 C 65 % 1008,7 hPa 0,0 l/m 2 min 0 min 486 W/m 22,5 km/h (4 Bft) 95,74 %
27.09.2019 16:22 20,4 C 23,3 C 16,1 C 64 % 1008,8 hPa 0,0 l/m 2 min 0 min 474 W/m 35,4 km/h (5 Bft) 97,87 %
27.09.2019 16:24 20,5 C 23,3 C 16,1 C 64 % 1008,6 hPa 0,0 l/m 2 min 0 min 469 W/m 22,5 km/h (4 Bft) 97,83 %
27.09.2019 16:26 20,5 C 22,8 C 16,1 C 63 % 1008,7 hPa 0,0 l/m 2 min 0 min 458 W/m 25,7 km/h (4 Bft) 95,74 %
27.09.2019 16:28 20,5 C 22,8 C 16,1 C 63 % 1008,5 hPa 0,0 l/m 2 min 0 min 452 W/m 32,2 km/h (5 Bft) 97,87 %
27.09.2019 16:30 20,5 C 23,3 C 16,1 C 63 % 1008,5 hPa 0,0 l/m 2 min 0 min 445 W/m 16,1 km/h (3 Bft) 95,74 %
27.09.2019 16:32 20,6 C 23,9 C 16,1 C 63 % 1008,5 hPa 0,0 l/m 2 min 0 min 437 W/m 22,5 km/h (4 Bft) 97,87 %
27.09.2019 16:34 20,6 C 23,3 C 16,1 C 64 % 1008,5 hPa 0,0 l/m 2 min 0 min 431 W/m 19,3 km/h (3 Bft) 97,87 %
27.09.2019 16:36 20,6 C 23,3 C 16,1 C 64 % 1008,4 hPa 0,0 l/m 2 min 0 min 437 W/m 19,3 km/h (3 Bft) 97,83 %
27.09.2019 16:38 20,6 C 23,3 C 16,1 C 63 % 1008,4 hPa 0,0 l/m 2 min 0 min 434 W/m 19,3 km/h (3 Bft) 97,87 %
27.09.2019 16:40 20,6 C 23,3 C 16,1 C 63 % 1008,4 hPa 0,0 l/m 2 min 0 min 428 W/m 16,1 km/h (3 Bft) 97,87 %
27.09.2019 16:42 20,7 C 23,3 C 16,1 C 62 % 1008,5 hPa 0,0 l/m 2 min 0 min 423 W/m 19,3 km/h (3 Bft) 97,87 %
27.09.2019 16:44 20,7 C 23,9 C 16,1 C 63 % 1008,4 hPa 0,0 l/m 2 min 0 min 423 W/m 25,7 km/h (4 Bft) 97,87 %
27.09.2019 16:46 20,7 C 23,3 C 16,1 C 61 % 1008,4 hPa 0,0 l/m 2 min 0 min 416 W/m 25,7 km/h (4 Bft) 97,83 %
27.09.2019 16:48 20,7 C 23,3 C 16,1 C 61 % 1008,4 hPa 0,0 l/m 2 min 0 min 409 W/m 25,7 km/h (4 Bft) 97,87 %
27.09.2019 16:50 20,7 C 22,2 C 16,1 C 60 % 1008,5 hPa 0,0 l/m 2 min 0 min 377 W/m 35,4 km/h (5 Bft) 97,87 %
27.09.2019 16:52 20,7 C 21,7 C 16,1 C 60 % 1008,5 hPa 0,0 l/m 2 min 0 min 406 W/m 32,2 km/h (5 Bft) 97,87 %
27.09.2019 16:54 20,7 C 21,7 C 16,1 C 61 % 1008,5 hPa 0,0 l/m 0 min 0 min 150 W/m 25,7 km/h (4 Bft) 97,87 %
27.09.2019 16:56 20,7 C 22,2 C 16,1 C 60 % 1008,4 hPa 0,0 l/m 2 min 0 min 394 W/m 41,8 km/h (6 Bft) 95,74 %
27.09.2019 16:58 20,7 C 22,2 C 16,1 C 60 % 1008,5 hPa 0,0 l/m 2 min 0 min 385 W/m 35,4 km/h (5 Bft) 97,83 %
27.09.2019 17:00 20,6 C 22,2 C 16,1 C 60 % 1008,4 hPa 0,0 l/m 2 min 0 min 372 W/m 29,0 km/h (5 Bft) 97,87 %
27.09.2019 17:02 20,6 C 22,2 C 16,1 C 61 % 1008,4 hPa 0,0 l/m 2 min 0 min 360 W/m 22,5 km/h (4 Bft) 97,87 %
27.09.2019 17:04 20,6 C 22,8 C 16,1 C 62 % 1008,4 hPa 0,0 l/m 2 min 0 min 363 W/m 22,5 km/h (4 Bft) 100,00 %
27.09.2019 17:06 20,6 C 22,8 C 16,1 C 62 % 1008,3 hPa 0,0 l/m 2 min 0 min 355 W/m 19,3 km/h (3 Bft) 100,00 %
27.09.2019 17:08 20,6 C 21,7 C 16,1 C 62 % 1008,3 hPa 0,0 l/m 2 min 0 min 311 W/m 22,5 km/h (4 Bft) 100,00 %
27.09.2019 17:10 20,6 C 22,2 C 16,1 C 61 % 1008,4 hPa 0,0 l/m 2 min 0 min 313 W/m 32,2 km/h (5 Bft) 97,83 %
27.09.2019 17:12 20,6 C 22,2 C 16,1 C 61 % 1008,3 hPa 0,0 l/m 2 min 0 min 354 W/m 22,5 km/h (4 Bft) 100,00 %
27.09.2019 17:14 20,6 C 22,2 C 16,1 C 61 % 1008,3 hPa 0,0 l/m 2 min 0 min 344 W/m 16,1 km/h (3 Bft) 97,87 %
27.09.2019 17:16 20,6 C 21,7 C 16,1 C 61 % 1008,3 hPa 0,0 l/m 2 min 0 min 332 W/m 22,5 km/h (4 Bft) 100,00 %
27.09.2019 17:18 20,6 C 22,2 C 16,1 C 62 % 1008,3 hPa 0,0 l/m 2 min 0 min 332 W/m 19,3 km/h (3 Bft) 100,00 %
27.09.2019 17:20 20,6 C 22,8 C 16,1 C 62 % 1008,3 hPa 0,0 l/m 2 min 0 min 319 W/m 25,7 km/h (4 Bft) 100,00 %
27.09.2019 17:22 20,6 C 22,2 C 16,1 C 62 % 1008,3 hPa 0,0 l/m 2 min 0 min 311 W/m 29,0 km/h (5 Bft) 100,00 %
27.09.2019 17:24 20,6 C 21,7 C 16,1 C 61 % 1008,3 hPa 0,0 l/m 2 min 0 min 300 W/m 41,8 km/h (6 Bft) 100,00 %
27.09.2019 17:26 20,6 C 20,0 C 16,1 C 61 % 1008,3 hPa 0,0 l/m 2 min 0 min 242 W/m 32,2 km/h (5 Bft) 100,00 %
27.09.2019 17:28 20,5 C 19,4 C 16,1 C 60 % 1008,3 hPa 0,0 l/m 0 min 0 min 55 W/m 22,5 km/h (4 Bft) 97,87 %
27.09.2019 17:30 20,4 C 18,9 C 16,1 C 60 % 1008,2 hPa 0,0 l/m 0 min 0 min 62 W/m 35,4 km/h (5 Bft) 95,74 %
27.09.2019 17:32 20,3 C 20,0 C 16,1 C 61 % 1008,3 hPa 0,0 l/m 2 min 0 min 140 W/m 22,5 km/h (4 Bft) 95,74 %
27.09.2019 17:34 20,3 C 20,6 C 16,1 C 61 % 1008,3 hPa 0,0 l/m 2 min 0 min 273 W/m 25,7 km/h (4 Bft) 97,83 %
27.09.2019 17:36 20,2 C 21,7 C 16,1 C 62 % 1008,3 hPa 0,0 l/m 2 min 0 min 312 W/m 16,1 km/h (3 Bft) 97,87 %
27.09.2019 17:38 20,2 C 22,2 C 16,1 C 63 % 1008,3 hPa 0,0 l/m 2 min 0 min 307 W/m 12,9 km/h (3 Bft) 97,87 %
27.09.2019 17:40 20,2 C 21,1 C 16,1 C 63 % 1008,3 hPa 0,0 l/m 2 min 0 min 172 W/m 19,3 km/h (3 Bft) 97,87 %
27.09.2019 17:42 20,2 C 20,0 C 16,1 C 63 % 1008,3 hPa 0,0 l/m 0 min 0 min 88 W/m 19,3 km/h (3 Bft) 95,74 %
27.09.2019 17:44 20,1 C 19,4 C 16,1 C 62 % 1008,3 hPa 0,0 l/m 0 min 0 min 74 W/m 32,2 km/h (5 Bft) 97,83 %
27.09.2019 17:46 20,1 C 19,4 C 16,1 C 62 % 1008,3 hPa 0,0 l/m 0 min 0 min 70 W/m 22,5 km/h (4 Bft) 93,62 %
27.09.2019 17:49 20,1 C 18,9 C 16,1 C 63 % 1008,3 hPa 0,0 l/m 0 min 0 min 62 W/m 22,5 km/h (4 Bft) 98,59 %
27.09.2019 17:50 20,1 C 18,9 C 16,1 C 63 % 1008,3 hPa 0,0 l/m 0 min 0 min 62 W/m 22,5 km/h (4 Bft) 95,65 %
27.09.2019 17:52 20,0 C 18,9 C 16,1 C 63 % 1008,3 hPa 0,0 l/m 0 min 0 min 66 W/m 16,1 km/h (3 Bft) 97,87 %
27.09.2019 17:54 19,9 C 18,9 C 16,1 C 63 % 1008,3 hPa 0,0 l/m 0 min 0 min 76 W/m 22,5 km/h (4 Bft) 97,87 %
27.09.2019 17:56 19,9 C 18,9 C 16,1 C 63 % 1008,3 hPa 0,0 l/m 0 min 0 min 84 W/m 19,3 km/h (3 Bft) 97,83 %
27.09.2019 17:58 19,9 C 18,9 C 16,1 C 63 % 1008,4 hPa 0,0 l/m 0 min 0 min 93 W/m 32,2 km/h (5 Bft) 97,87 %
27.09.2019 18:00 19,8 C 18,9 C 16,1 C 63 % 1008,3 hPa 0,0 l/m 0 min 0 min 72 W/m 32,2 km/h (5 Bft) 97,87 %
27.09.2019 18:02 19,8 C 18,9 C 16,1 C 63 % 1008,4 hPa 0,0 l/m 0 min 0 min 60 W/m 22,5 km/h (4 Bft) 97,87 %
27.09.2019 18:04 19,8 C 18,9 C 16,1 C 64 % 1008,4 hPa 0,0 l/m 0 min 0 min 69 W/m 16,1 km/h (3 Bft) 95,74 %
27.09.2019 18:08 19,7 C 18,9 C 16,1 C 64 % 1008,3 hPa 0,0 l/m 0 min 0 min 77 W/m 29,0 km/h (5 Bft) 97,85 %
27.09.2019 18:10 19,6 C 18,9 C 16,1 C 64 % 1008,4 hPa 0,0 l/m 0 min 0 min 58 W/m 22,5 km/h (4 Bft) 100,00 %
27.09.2019 18:12 19,6 C 18,9 C 16,1 C 64 % 1008,4 hPa 0,0 l/m 0 min 0 min 53 W/m 16,1 km/h (3 Bft) 100,00 %
27.09.2019 18:14 19,6 C 18,3 C 16,1 C 65 % 1008,3 hPa 0,0 l/m 0 min 0 min 51 W/m 16,1 km/h (3 Bft) 100,00 %
27.09.2019 18:16 19,6 C 18,3 C 16,1 C 65 % 1008,3 hPa 0,0 l/m 0 min 0 min 53 W/m 16,1 km/h (3 Bft) 100,00 %
27.09.2019 18:18 19,5 C 18,3 C 16,1 C 65 % 1008,3 hPa 0,0 l/m 0 min 0 min 54 W/m 19,3 km/h (3 Bft) 97,87 %
27.09.2019 18:20 19,5 C 18,3 C 16,1 C 66 % 1008,4 hPa 0,0 l/m 0 min 0 min 55 W/m 16,1 km/h (3 Bft) 100,00 %
27.09.2019 18:22 19,4 C 18,3 C 16,1 C 66 % 1008,5 hPa 0,0 l/m 0 min 0 min 48 W/m 19,3 km/h (3 Bft) 100,00 %
27.09.2019 18:24 19,4 C 18,3 C 16,1 C 66 % 1008,5 hPa 0,0 l/m 0 min 0 min 44 W/m 19,3 km/h (3 Bft) 97,87 %
27.09.2019 18:26 19,3 C 18,3 C 16,1 C 66 % 1008,6 hPa 0,0 l/m 0 min 0 min 40 W/m 19,3 km/h (3 Bft) 97,87 %
27.09.2019 18:28 19,3 C 18,3 C 16,1 C 66 % 1008,5 hPa 0,0 l/m 0 min 0 min 37 W/m 22,5 km/h (4 Bft) 100,00 %
27.09.2019 18:30 19,2 C 18,3 C 16,1 C 66 % 1008,5 hPa 0,0 l/m 0 min 0 min 36 W/m 22,5 km/h (4 Bft) 100,00 %
27.09.2019 18:32 19,2 C 18,3 C 16,1 C 66 % 1008,5 hPa 0,0 l/m 0 min 0 min 36 W/m 22,5 km/h (4 Bft) 97,83 %
27.09.2019 18:34 19,2 C 17,8 C 16,1 C 66 % 1008,5 hPa 0,0 l/m 0 min 0 min 31 W/m 16,1 km/h (3 Bft) 100,00 %
27.09.2019 18:36 19,1 C 17,8 C 16,1 C 67 % 1008,5 hPa 0,0 l/m 0 min 0 min 33 W/m 29,0 km/h (5 Bft) 97,87 %
27.09.2019 18:38 19,1 C 18,3 C 16,1 C 67 % 1008,6 hPa 0,0 l/m 0 min 0 min 41 W/m 16,1 km/h (3 Bft) 97,87 %
27.09.2019 18:40 19,1 C 18,3 C 16,1 C 67 % 1008,5 hPa 0,0 l/m 0 min 0 min 43 W/m 25,7 km/h (4 Bft) 97,87 %
27.09.2019 18:42 19,0 C 18,3 C 16,1 C 68 % 1008,5 hPa 0,0 l/m 0 min 0 min 41 W/m 22,5 km/h (4 Bft) 95,74 %
27.09.2019 18:44 19,0 C 18,3 C 16,1 C 68 % 1008,5 hPa 0,0 l/m 2 min 0 min 44 W/m 16,1 km/h (3 Bft) 97,83 %
27.09.2019 18:46 18,9 C 17,8 C 16,1 C 68 % 1008,5 hPa 0,0 l/m 2 min 0 min 41 W/m 22,5 km/h (4 Bft) 97,87 %
27.09.2019 18:48 18,9 C 17,8 C 16,1 C 68 % 1008,5 hPa 0,0 l/m 0 min 0 min 32 W/m 25,7 km/h (4 Bft) 95,74 %
27.09.2019 18:50 18,9 C 17,8 C 16,1 C 68 % 1008,5 hPa 0,0 l/m 0 min 0 min 26 W/m 19,3 km/h (3 Bft) 97,87 %
27.09.2019 18:52 18,9 C 17,8 C 16,1 C 68 % 1008,6 hPa 0,0 l/m 0 min 0 min 23 W/m 12,9 km/h (3 Bft) 97,87 %
27.09.2019 18:54 18,8 C 17,8 C 16,1 C 69 % 1008,7 hPa 0,0 l/m 0 min 0 min 21 W/m 19,3 km/h (3 Bft) 97,83 %
27.09.2019 18:56 18,8 C 17,8 C 16,1 C 68 % 1008,6 hPa 0,0 l/m 0 min 0 min 21 W/m 19,3 km/h (3 Bft) 97,87 %
27.09.2019 18:58 18,8 C 17,8 C 16,1 C 69 % 1008,7 hPa 0,0 l/m 0 min 0 min 19 W/m 19,3 km/h (3 Bft) 95,74 %
27.09.2019 19:00 18,8 C 17,2 C 16,1 C 69 % 1008,6 hPa 0,0 l/m 0 min 0 min 18 W/m 16,1 km/h (3 Bft) 97,87 %
27.09.2019 19:02 18,7 C 17,2 C 16,1 C 69 % 1008,7 hPa 0,0 l/m 0 min 0 min 17 W/m 12,9 km/h (3 Bft) 95,74 %
27.09.2019 19:04 18,7 C 17,2 C 16,1 C 69 % 1008,7 hPa 0,0 l/m 0 min 0 min 15 W/m 16,1 km/h (3 Bft) 95,74 %
27.09.2019 19:06 18,7 C 17,2 C 16,1 C 70 % 1008,7 hPa 0,0 l/m 0 min 0 min 13 W/m 12,9 km/h (3 Bft) 97,83 %
27.09.2019 19:08 18,6 C 17,2 C 16,1 C 70 % 1008,7 hPa 0,0 l/m 0 min 0 min 12 W/m 16,1 km/h (3 Bft) 100,00 %
27.09.2019 19:10 18,6 C 17,2 C 16,1 C 70 % 1008,7 hPa 0,0 l/m 0 min 0 min 10 W/m 19,3 km/h (3 Bft) 97,87 %
27.09.2019 19:12 18,5 C 17,2 C 16,1 C 70 % 1008,8 hPa 0,0 l/m 0 min 0 min 8 W/m 19,3 km/h (3 Bft) 97,87 %
27.09.2019 19:14 18,5 C 17,2 C 16,1 C 70 % 1008,7 hPa 0,0 l/m 0 min 0 min 7 W/m 22,5 km/h (4 Bft) 97,87 %
27.09.2019 19:16 18,4 C 17,2 C 16,1 C 70 % 1008,7 hPa 0,0 l/m 0 min 0 min 6 W/m 22,5 km/h (4 Bft) 95,74 %
27.09.2019 19:18 18,4 C 16,7 C 16,1 C 70 % 1008,8 hPa 0,0 l/m 0 min 0 min 5 W/m 19,3 km/h (3 Bft) 93,48 %
27.09.2019 19:20 18,3 C 16,7 C 16,1 C 71 % 1008,8 hPa 0,0 l/m 0 min 0 min 3 W/m 16,1 km/h (3 Bft) 95,74 %
27.09.2019 19:22 18,3 C 16,7 C 16,1 C 71 % 1008,7 hPa 0,0 l/m 0 min 0 min 0 W/m 16,1 km/h (3 Bft) 95,74 %
27.09.2019 19:24 18,3 C 16,7 C 16,1 C 71 % 1008,8 hPa 0,0 l/m 0 min 0 min 0 W/m 12,9 km/h (3 Bft) 97,87 %
27.09.2019 19:26 18,2 C 16,7 C 16,1 C 71 % 1008,8 hPa 0,0 l/m 0 min 0 min 0 W/m 19,3 km/h (3 Bft) 97,87 %
27.09.2019 19:28 18,2 C 16,7 C 16,1 C 72 % 1008,8 hPa 0,0 l/m 0 min 0 min 0 W/m 16,1 km/h (3 Bft) 97,87 %
27.09.2019 19:30 18,1 C 16,7 C 16,1 C 72 % 1008,8 hPa 0,0 l/m 0 min 0 min 0 W/m 22,5 km/h (4 Bft) 95,65 %
27.09.2019 19:32 18,1 C 16,7 C 16,1 C 72 % 1008,8 hPa 0,0 l/m 0 min 0 min 0 W/m 19,3 km/h (3 Bft) 97,87 %
27.09.2019 19:34 18,1 C 16,7 C 16,1 C 72 % 1008,9 hPa 0,0 l/m 0 min 0 min 0 W/m 19,3 km/h (3 Bft) 97,87 %
27.09.2019 19:36 18,0 C 16,7 C 16,1 C 72 % 1008,9 hPa 0,0 l/m 0 min 0 min 0 W/m 12,9 km/h (3 Bft) 95,74 %
27.09.2019 19:38 17,9 C 16,7 C 16,1 C 72 % 1008,9 hPa 0,0 l/m 0 min 0 min 0 W/m 29,0 km/h (5 Bft) 97,87 %
27.09.2019 19:40 17,9 C 16,7 C 16,1 C 72 % 1009,0 hPa 0,0 l/m 0 min 0 min 0 W/m 16,1 km/h (3 Bft) 97,87 %
27.09.2019 19:42 17,8 C 16,7 C 16,1 C 73 % 1008,9 hPa 0,0 l/m 0 min 0 min 0 W/m 19,3 km/h (3 Bft) 97,83 %
27.09.2019 19:44 17,8 C 16,7 C 16,1 C 73 % 1009,0 hPa 0,0 l/m 0 min 0 min 0 W/m 12,9 km/h (3 Bft) 97,87 %
27.09.2019 19:46 17,8 C 16,7 C 16,1 C 73 % 1009,0 hPa 0,0 l/m 0 min 0 min 0 W/m 29,0 km/h (5 Bft) 97,87 %
27.09.2019 19:48 17,7 C 16,7 C 16,1 C 74 % 1009,0 hPa 0,0 l/m 0 min 0 min 0 W/m 25,7 km/h (4 Bft) 100,00 %
27.09.2019 19:50 17,7 C 16,7 C 16,1 C 74 % 1009,2 hPa 0,0 l/m 0 min 0 min 0 W/m 35,4 km/h (5 Bft) 95,74 %
27.09.2019 19:52 17,6 C 16,7 C 16,1 C 74 % 1009,2 hPa 0,0 l/m 0 min 0 min 0 W/m 35,4 km/h (5 Bft) 97,87 %
27.09.2019 19:54 17,6 C 16,7 C 16,1 C 75 % 1009,1 hPa 0,0 l/m 0 min 0 min 0 W/m 32,2 km/h (5 Bft) 97,83 %
27.09.2019 19:55 17,6 C 16,1 C 16,1 C 76 % 1009,2 hPa 0,0 l/m 0 min 0 min 0 W/m 22,5 km/h (4 Bft) 93,62 %
27.09.2019 19:58 17,5 C 16,1 C 16,1 C 76 % 1009,1 hPa 0,0 l/m 0 min 0 min 0 W/m 19,3 km/h (3 Bft) 97,87 %
27.09.2019 20:00 17,5 C 16,1 C 16,1 C 76 % 1009,2 hPa 0,0 l/m 0 min 0 min 0 W/m 25,7 km/h (4 Bft) 97,87 %
27.09.2019 20:02 17,4 C 16,1 C 16,1 C 76 % 1009,2 hPa 0,0 l/m 0 min 0 min 0 W/m 22,5 km/h (4 Bft) 95,74 %
27.09.2019 20:04 17,4 C 16,1 C 16,1 C 77 % 1009,1 hPa 0,0 l/m 0 min 0 min 0 W/m 19,3 km/h (3 Bft) 97,87 %
27.09.2019 20:06 17,4 C 16,1 C 16,1 C 77 % 1009,2 hPa 0,0 l/m 0 min 0 min 0 W/m 22,5 km/h (4 Bft) 97,87 %
27.09.2019 20:08 17,3 C 16,1 C 16,1 C 77 % 1009,3 hPa 0,0 l/m 0 min 0 min 0 W/m 25,7 km/h (4 Bft) 97,83 %
27.09.2019 20:10 17,3 C 15,6 C 16,1 C 78 % 1009,3 hPa 0,0 l/m 0 min 0 min 0 W/m 16,1 km/h (3 Bft) 95,74 %
27.09.2019 20:12 17,3 C 15,6 C 16,1 C 79 % 1009,2 hPa 0,0 l/m 0 min 0 min 0 W/m 16,1 km/h (3 Bft) 95,74 %
27.09.2019 20:14 17,2 C 15,6 C 16,1 C 79 % 1009,2 hPa 0,0 l/m 0 min 0 min 0 W/m 16,1 km/h (3 Bft) 97,87 %
27.09.2019 20:16 17,2 C 15,6 C 16,1 C 79 % 1009,3 hPa 0,0 l/m 0 min 0 min 0 W/m 12,9 km/h (3 Bft) 95,74 %
27.09.2019 20:18 17,1 C 15,6 C 16,1 C 79 % 1009,2 hPa 0,0 l/m 0 min 0 min 0 W/m 16,1 km/h (3 Bft) 95,74 %
27.09.2019 20:20 17,1 C 15,6 C 16,1 C 80 % 1009,3 hPa 0,0 l/m 0 min 0 min 0 W/m 19,3 km/h (3 Bft) 97,83 %
27.09.2019 20:22 17,1 C 15,6 C 16,1 C 80 % 1009,2 hPa 0,0 l/m 0 min 0 min 0 W/m 19,3 km/h (3 Bft) 95,74 %
27.09.2019 20:24 17,0 C 15,6 C 16,1 C 80 % 1009,2 hPa 0,0 l/m 0 min 0 min 0 W/m 12,9 km/h (3 Bft) 95,74 %
27.09.2019 20:26 16,9 C 15,0 C 16,1 C 80 % 1009,2 hPa 0,0 l/m 0 min 0 min 0 W/m 12,9 km/h (3 Bft) 95,74 %
27.09.2019 20:28 16,9 C 15,6 C 16,1 C 81 % 1009,4 hPa 0,0 l/m 0 min 0 min 0 W/m 19,3 km/h (3 Bft) 97,87 %
27.09.2019 20:30 16,8 C 15,6 C 16,1 C 81 % 1009,4 hPa 0,0 l/m 0 min 0 min 0 W/m 25,7 km/h (4 Bft) 97,87 %
27.09.2019 20:32 16,8 C 15,6 C 16,1 C 81 % 1009,4 hPa 0,0 l/m 0 min 0 min 0 W/m 16,1 km/h (3 Bft) 97,83 %
27.09.2019 20:34 16,7 C 15,6 C 16,1 C 81 % 1009,4 hPa 0,0 l/m 0 min 0 min 0 W/m 19,3 km/h (3 Bft) 93,62 %
27.09.2019 20:36 16,7 C 15,0 C 16,1 C 82 % 1009,4 hPa 0,0 l/m 0 min 0 min 0 W/m 19,3 km/h (3 Bft) 95,74 %
27.09.2019 20:38 16,7 C 15,0 C 16,1 C 82 % 1009,4 hPa 0,0 l/m 0 min 0 min 0 W/m 16,1 km/h (3 Bft) 97,87 %
27.09.2019 20:40 16,6 C 15,0 C 16,1 C 82 % 1009,4 hPa 0,0 l/m 0 min 0 min 0 W/m 12,9 km/h (3 Bft) 95,74 %
27.09.2019 20:42 16,6 C 15,0 C 16,1 C 82 % 1009,4 hPa 0,0 l/m 0 min 0 min 0 W/m 16,1 km/h (3 Bft) 97,83 %
27.09.2019 20:44 16,6 C 15,0 C 16,1 C 82 % 1009,5 hPa 0,0 l/m 0 min 0 min 0 W/m 19,3 km/h (3 Bft) 97,87 %
27.09.2019 20:46 16,5 C 15,6 C 16,1 C 82 % 1009,4 hPa 0,0 l/m 0 min 0 min 0 W/m 25,7 km/h (4 Bft) 95,74 %
27.09.2019 20:48 16,4 C 15,6 C 16,1 C 83 % 1009,4 hPa 0,0 l/m 0 min 0 min 0 W/m 16,1 km/h (3 Bft) 97,87 %
27.09.2019 20:50 16,4 C 15,6 C 16,1 C 83 % 1009,4 hPa 0,0 l/m 0 min 0 min 0 W/m 16,1 km/h (3 Bft) 97,87 %
27.09.2019 20:52 16,4 C 15,6 C 16,1 C 83 % 1009,4 hPa 0,0 l/m 0 min 0 min 0 W/m 12,9 km/h (3 Bft) 97,87 %
27.09.2019 20:54 16,4 C 15,6 C 16,1 C 83 % 1009,5 hPa 0,0 l/m 0 min 0 min 0 W/m 19,3 km/h (3 Bft) 97,83 %
27.09.2019 20:56 16,3 C 15,0 C 16,1 C 83 % 1009,5 hPa 0,0 l/m 0 min 2 min 0 W/m 19,3 km/h (3 Bft) 97,87 %
27.09.2019 20:58 16,3 C 14,4 C 16,1 C 84 % 1009,5 hPa 0,0 l/m 0 min 2 min 0 W/m 22,5 km/h (4 Bft) 95,74 %
27.09.2019 21:00 16,3 C 14,4 C 16,1 C 84 % 1009,5 hPa 0,0 l/m 0 min 2 min 0 W/m 22,5 km/h (4 Bft) 100,00 %
27.09.2019 21:02 16,3 C 14,4 C 16,1 C 84 % 1009,6 hPa 0,0 l/m 0 min 2 min 0 W/m 25,7 km/h (4 Bft) 97,87 %
27.09.2019 21:04 16,2 C 14,4 C 16,1 C 84 % 1009,5 hPa 0,0 l/m 0 min 2 min 0 W/m 19,3 km/h (3 Bft) 100,00 %
27.09.2019 21:06 16,2 C 15,0 C 16,1 C 84 % 1009,6 hPa 0,0 l/m 0 min 2 min 0 W/m 22,5 km/h (4 Bft) 100,00 %
27.09.2019 21:08 16,2 C 15,0 C 16,1 C 84 % 1009,7 hPa 0,0 l/m 0 min 0 min 0 W/m 25,7 km/h (4 Bft) 95,65 %
27.09.2019 21:10 16,2 C 15,6 C 16,1 C 84 % 1009,6 hPa 0,0 l/m 0 min 0 min 0 W/m 25,7 km/h (4 Bft) 97,87 %
27.09.2019 21:12 16,2 C 15,0 C 16,1 C 85 % 1009,6 hPa 0,0 l/m 0 min 2 min 0 W/m 32,2 km/h (5 Bft) 95,74 %
27.09.2019 21:14 16,2 C 15,0 C 16,1 C 85 % 1009,7 hPa 0,0 l/m 0 min 0 min 0 W/m 16,1 km/h (3 Bft) 100,00 %
27.09.2019 21:16 16,2 C 15,0 C 16,1 C 85 % 1009,7 hPa 0,0 l/m 0 min 0 min 0 W/m 19,3 km/h (3 Bft) 97,87 %
27.09.2019 21:18 16,2 C 15,0 C 16,1 C 85 % 1009,7 hPa 0,0 l/m 0 min 0 min 0 W/m 22,5 km/h (4 Bft) 93,48 %
27.09.2019 21:20 16,2 C 15,0 C 16,1 C 85 % 1009,7 hPa 0,0 l/m 0 min 0 min 0 W/m 12,9 km/h (3 Bft) 97,87 %
27.09.2019 21:24 16,2 C 15,0 C 16,1 C 86 % 1009,5 hPa 0,0 l/m 0 min 4 min 0 W/m 19,3 km/h (3 Bft) 94,44 %
27.09.2019 21:26 16,2 C 15,0 C 16,1 C 86 % 1009,5 hPa 0,0 l/m 0 min 2 min 0 W/m 12,9 km/h (3 Bft) 95,65 %
27.09.2019 21:28 16,1 C 15,0 C 16,1 C 86 % 1009,5 hPa 0,0 l/m 0 min 0 min 0 W/m 22,5 km/h (4 Bft) 97,87 %
27.09.2019 21:30 16,1 C 15,0 C 16,1 C 86 % 1009,6 hPa 0,0 l/m 0 min 0 min 0 W/m 22,5 km/h (4 Bft) 97,87 %
27.09.2019 21:32 16,1 C 15,0 C 16,1 C 86 % 1009,5 hPa 0,0 l/m 0 min 0 min 0 W/m 19,3 km/h (3 Bft) 95,74 %
27.09.2019 21:34 16,1 C 14,4 C 16,1 C 86 % 1009,5 hPa 0,0 l/m 0 min 2 min 0 W/m 12,9 km/h (3 Bft) 97,87 %
27.09.2019 21:36 16,1 C 13,9 C 16,1 C 86 % 1009,4 hPa 0,0 l/m 0 min 2 min 0 W/m 25,7 km/h (4 Bft) 97,87 %
27.09.2019 21:38 16,1 C 13,9 C 16,1 C 86 % 1009,5 hPa 0,0 l/m 0 min 2 min 0 W/m 19,3 km/h (3 Bft) 97,83 %
27.09.2019 21:40 16,1 C 14,4 C 16,1 C 86 % 1009,5 hPa 0,0 l/m 0 min 0 min 0 W/m 25,7 km/h (4 Bft) 97,87 %
27.09.2019 21:42 16,1 C 14,4 C 16,1 C 86 % 1009,6 hPa 0,0 l/m 0 min 0 min 0 W/m 22,5 km/h (4 Bft) 97,87 %
27.09.2019 21:44 16,1 C 14,4 C 16,1 C 86 % 1009,5 hPa 0,0 l/m 0 min 0 min 0 W/m 16,1 km/h (3 Bft) 97,87 %
27.09.2019 21:46 16,0 C 14,4 C 16,1 C 86 % 1009,7 hPa 0,0 l/m 0 min 0 min 0 W/m 22,5 km/h (4 Bft) 97,87 %
27.09.2019 21:48 16,0 C 15,0 C 16,1 C 86 % 1009,5 hPa 0,0 l/m 0 min 0 min 0 W/m 16,1 km/h (3 Bft) 95,74 %
27.09.2019 21:50 16,0 C 15,0 C 16,1 C 86 % 1009,5 hPa 0,0 l/m 0 min 0 min 0 W/m 16,1 km/h (3 Bft) 97,83 %
27.09.2019 21:52 16,0 C 15,0 C 16,1 C 86 % 1009,5 hPa 0,0 l/m 0 min 0 min 0 W/m 22,5 km/h (4 Bft) 97,87 %
27.09.2019 21:54 15,9 C 15,0 C 16,1 C 86 % 1009,6 hPa 0,0 l/m 0 min 0 min 0 W/m 19,3 km/h (3 Bft) 97,87 %
27.09.2019 21:56 15,9 C 15,0 C 16,1 C 86 % 1009,6 hPa 0,0 l/m 0 min 0 min 0 W/m 19,3 km/h (3 Bft) 97,87 %
27.09.2019 21:58 15,9 C 15,0 C 16,1 C 86 % 1009,6 hPa 0,0 l/m 0 min 0 min 0 W/m 19,3 km/h (3 Bft) 95,74 %
27.09.2019 22:00 15,9 C 15,0 C 16,1 C 86 % 1009,6 hPa 0,0 l/m 0 min 0 min 0 W/m 16,1 km/h (3 Bft) 95,65 %
27.09.2019 22:02 15,9 C 15,0 C 16,1 C 86 % 1009,6 hPa 0,0 l/m 0 min 0 min 0 W/m 12,9 km/h (3 Bft) 97,87 %
27.09.2019 22:04 15,9 C 14,4 C 16,1 C 86 % 1009,5 hPa 0,0 l/m 0 min 0 min 0 W/m 16,1 km/h (3 Bft) 97,87 %
27.09.2019 22:06 15,8 C 14,4 C 16,1 C 86 % 1009,5 hPa 0,0 l/m 0 min 0 min 0 W/m 16,1 km/h (3 Bft) 97,87 %
27.09.2019 22:08 15,8 C 14,4 C 16,1 C 86 % 1009,5 hPa 0,0 l/m 0 min 0 min 0 W/m 16,1 km/h (3 Bft) 97,87 %
27.09.2019 22:10 15,8 C 14,4 C 16,1 C 86 % 1009,5 hPa 0,0 l/m 0 min 0 min 0 W/m 12,9 km/h (3 Bft) 97,87 %
27.09.2019 22:12 15,8 C 14,4 C 16,1 C 86 % 1009,5 hPa 0,0 l/m 0 min 0 min 0 W/m 16,1 km/h (3 Bft) 95,65 %
27.09.2019 22:14 15,8 C 14,4 C 16,1 C 86 % 1009,5 hPa 0,0 l/m 0 min 0 min 0 W/m 6,4 km/h (2 Bft) 100,00 %
27.09.2019 22:16 15,7 C 14,4 C 16,1 C 86 % 1009,5 hPa 0,0 l/m 0 min 0 min 0 W/m 9,7 km/h (2 Bft) 100,00 %
27.09.2019 22:18 15,7 C 14,4 C 16,1 C 86 % 1009,5 hPa 0,0 l/m 0 min 0 min 0 W/m 6,4 km/h (2 Bft) 100,00 %
27.09.2019 22:20 15,7 C 14,4 C 16,1 C 86 % 1009,4 hPa 0,0 l/m 0 min 0 min 0 W/m 12,9 km/h (3 Bft) 100,00 %
27.09.2019 22:22 15,7 C 14,4 C 16,1 C 86 % 1009,4 hPa 0,0 l/m 0 min 0 min 0 W/m 6,4 km/h (2 Bft) 100,00 %
27.09.2019 22:24 15,7 C 14,4 C 16,1 C 86 % 1009,4 hPa 0,0 l/m 0 min 0 min 0 W/m 6,4 km/h (2 Bft) 100,00 %
27.09.2019 22:26 15,6 C 14,4 C 16,1 C 86 % 1009,3 hPa 0,0 l/m 0 min 0 min 0 W/m 16,1 km/h (3 Bft) 100,00 %
27.09.2019 22:28 15,6 C 14,4 C 16,1 C 86 % 1009,3 hPa 0,0 l/m 0 min 0 min 0 W/m 12,9 km/h (3 Bft) 100,00 %
27.09.2019 22:30 15,6 C 14,4 C 16,1 C 86 % 1009,3 hPa 0,0 l/m 0 min 0 min 0 W/m 16,1 km/h (3 Bft) 100,00 %
27.09.2019 22:32 15,5 C 14,4 C 16,1 C 86 % 1009,3 hPa 0,0 l/m 0 min 0 min 0 W/m 16,1 km/h (3 Bft) 97,87 %
27.09.2019 22:34 15,5 C 14,4 C 16,1 C 86 % 1009,3 hPa 0,0 l/m 0 min 0 min 0 W/m 16,1 km/h (3 Bft) 100,00 %
27.09.2019 22:36 15,4 C 14,4 C 16,1 C 86 % 1009,3 hPa 0,0 l/m 0 min 0 min 0 W/m 12,9 km/h (3 Bft) 100,00 %
27.09.2019 22:38 15,4 C 14,4 C 16,1 C 86 % 1009,3 hPa 0,0 l/m 0 min 0 min 0 W/m 12,9 km/h (3 Bft) 97,87 %
27.09.2019 22:40 15,4 C 13,9 C 16,1 C 87 % 1009,3 hPa 0,0 l/m 0 min 0 min 0 W/m 29,0 km/h (5 Bft) 100,00 %
27.09.2019 22:42 15,4 C 14,4 C 16,1 C 87 % 1009,3 hPa 0,0 l/m 0 min 0 min 0 W/m 12,9 km/h (3 Bft) 100,00 %
27.09.2019 22:44 15,4 C 13,9 C 16,1 C 87 % 1009,3 hPa 0,0 l/m 0 min 0 min 0 W/m 12,9 km/h (3 Bft) 100,00 %
27.09.2019 22:46 15,3 C 13,9 C 16,1 C 87 % 1009,3 hPa 0,0 l/m 0 min 0 min 0 W/m 12,9 km/h (3 Bft) 100,00 %
27.09.2019 22:48 15,3 C 13,9 C 16,1 C 87 % 1009,3 hPa 0,0 l/m 0 min 0 min 0 W/m 16,1 km/h (3 Bft) 100,00 %
27.09.2019 22:50 15,3 C 13,9 C 16,1 C 87 % 1009,3 hPa 0,0 l/m 0 min 0 min 0 W/m 12,9 km/h (3 Bft) 100,00 %
27.09.2019 22:52 15,3 C 13,9 C 16,1 C 87 % 1009,4 hPa 0,0 l/m 0 min 0 min 0 W/m 9,7 km/h (2 Bft) 100,00 %
27.09.2019 22:54 15,3 C 13,9 C 16,1 C 87 % 1009,4 hPa 0,0 l/m 0 min 0 min 0 W/m 16,1 km/h (3 Bft) 100,00 %
27.09.2019 22:56 15,2 C 13,9 C 16,1 C 88 % 1009,4 hPa 0,0 l/m 0 min 0 min 0 W/m 6,4 km/h (2 Bft) 100,00 %
27.09.2019 22:58 15,2 C 13,9 C 16,1 C 88 % 1009,4 hPa 0,0 l/m 0 min 0 min 0 W/m 6,4 km/h (2 Bft) 95,74 %
27.09.2019 23:00 15,2 C 13,9 C 16,1 C 88 % 1009,5 hPa 0,0 l/m 0 min 0 min 0 W/m 12,9 km/h (3 Bft) 95,65 %
27.09.2019 23:02 15,2 C 13,9 C 16,1 C 88 % 1009,4 hPa 0,0 l/m 0 min 0 min 0 W/m 12,9 km/h (3 Bft) 95,74 %
27.09.2019 23:04 15,1 C 13,9 C 16,1 C 88 % 1009,4 hPa 0,0 l/m 0 min 0 min 0 W/m 3,2 km/h (1 Bft) 95,74 %
27.09.2019 23:06 15,1 C 13,9 C 16,1 C 88 % 1009,4 hPa 0,0 l/m 0 min 0 min 0 W/m 12,9 km/h (3 Bft) 93,62 %
27.09.2019 23:08 15,1 C 13,9 C 16,1 C 88 % 1009,4 hPa 0,0 l/m 0 min 0 min 0 W/m 12,9 km/h (3 Bft) 93,62 %
27.09.2019 23:10 15,1 C 13,3 C 16,1 C 88 % 1009,4 hPa 0,0 l/m 0 min 0 min 0 W/m 12,9 km/h (3 Bft) 95,65 %
27.09.2019 23:12 15,1 C 13,3 C 16,1 C 88 % 1009,4 hPa 0,0 l/m 0 min 0 min 0 W/m 12,9 km/h (3 Bft) 95,74 %
27.09.2019 23:14 15,0 C 13,3 C 16,1 C 88 % 1009,4 hPa 0,0 l/m 0 min 0 min 0 W/m 12,9 km/h (3 Bft) 93,62 %
27.09.2019 23:16 15,0 C 13,3 C 16,1 C 88 % 1009,4 hPa 0,0 l/m 0 min 0 min 0 W/m 6,4 km/h (2 Bft) 93,62 %
27.09.2019 23:18 14,9 C 13,3 C 16,1 C 88 % 1009,4 hPa 0,0 l/m 0 min 0 min 0 W/m 12,9 km/h (3 Bft) 95,74 %
27.09.2019 23:20 14,9 C 13,3 C 16,1 C 89 % 1009,4 hPa 0,0 l/m 0 min 0 min 0 W/m 12,9 km/h (3 Bft) 95,74 %
27.09.2019 23:22 14,9 C 13,3 C 16,1 C 89 % 1009,4 hPa 0,0 l/m 0 min 0 min 0 W/m 6,4 km/h (2 Bft) 95,65 %
27.09.2019 23:24 14,9 C 13,3 C 16,1 C 89 % 1009,4 hPa 0,0 l/m 0 min 0 min 0 W/m 16,1 km/h (3 Bft) 93,62 %
27.09.2019 23:26 14,8 C 13,3 C 16,1 C 89 % 1009,4 hPa 0,0 l/m 0 min 0 min 0 W/m 12,9 km/h (3 Bft) 95,74 %
27.09.2019 23:28 14,8 C 13,3 C 16,1 C 89 % 1009,5 hPa 0,0 l/m 0 min 0 min 0 W/m 19,3 km/h (3 Bft) 95,74 %
27.09.2019 23:30 14,8 C 13,3 C 16,1 C 89 % 1009,5 hPa 0,0 l/m 0 min 0 min 0 W/m 6,4 km/h (2 Bft) 95,74 %
27.09.2019 23:32 14,8 C 13,3 C 16,1 C 89 % 1009,5 hPa 0,0 l/m 0 min 0 min 0 W/m 16,1 km/h (3 Bft) 94,44 %
27.09.2019 23:34 14,7 C 13,3 C 16,1 C 89 % 1009,4 hPa 0,0 l/m 0 min 0 min 0 W/m 19,3 km/h (3 Bft) 95,74 %
27.09.2019 23:36 14,7 C 13,9 C 16,1 C 90 % 1009,4 hPa 0,0 l/m 0 min 0 min 0 W/m 16,1 km/h (3 Bft) 95,74 %
27.09.2019 23:38 14,7 C 13,9 C 16,1 C 90 % 1009,4 hPa 0,0 l/m 0 min 0 min 0 W/m 12,9 km/h (3 Bft) 95,65 %
27.09.2019 23:40 14,7 C 13,9 C 16,1 C 90 % 1009,4 hPa 0,0 l/m 0 min 0 min 0 W/m 19,3 km/h (3 Bft) 94,44 %
27.09.2019 23:42 14,7 C 13,9 C 16,1 C 90 % 1009,4 hPa 0,0 l/m 0 min 0 min 0 W/m 16,1 km/h (3 Bft) 98,28 %
27.09.2019 23:44 14,7 C 13,9 C 16,1 C 90 % 1009,4 hPa 0,0 l/m 0 min 0 min 0 W/m 12,9 km/h (3 Bft) 95,74 %
27.09.2019 23:46 14,6 C 13,9 C 16,1 C 90 % 1009,4 hPa 0,0 l/m 0 min 0 min 0 W/m 12,9 km/h (3 Bft) 97,14 %
27.09.2019 23:49 14,6 C 13,9 C 16,1 C 90 % 1009,4 hPa 0,0 l/m 0 min 0 min 0 W/m 12,9 km/h (3 Bft) 96,34 %
27.09.2019 23:50 14,6 C 13,9 C 16,1 C 90 % 1009,4 hPa 0,0 l/m 0 min 0 min 0 W/m 22,5 km/h (4 Bft) 100,00 %
27.09.2019 23:52 14,6 C 14,4 C 16,1 C 91 % 1009,4 hPa 0,0 l/m 0 min 0 min 0 W/m 22,5 km/h (4 Bft) 97,87 %
27.09.2019 23:54 14,6 C 14,4 C 16,1 C 91 % 1009,4 hPa 0,0 l/m 0 min 0 min 0 W/m 12,9 km/h (3 Bft) 97,87 %
27.09.2019 23:56 14,6 C 14,4 C 16,1 C 91 % 1009,4 hPa 0,0 l/m 0 min 0 min 0 W/m 19,3 km/h (3 Bft) 93,62 %
27.09.2019 23:58 14,7 C 14,4 C 16,1 C 91 % 1009,5 hPa 0,0 l/m 0 min 0 min 0 W/m 16,1 km/h (3 Bft) 93,62 %
_ Min-Zeit 08:48 01:16 00:00 16:50 17:30 - - - - 06:38 08:24
Minimum _ 13,1 C 12,2 C 16,1 C 60 % 1008,2 hPa - - - - 0,0 km/h (0 Bft) 53,33 %
_ Max-Zeit 15:38 13:20 00:00 04:48 01:58 00:52 09:28 00:08 13:14 16:08 00:24
Maximum _ 21,0 C 26,1 C 16,1 C 99 % 1010,3 hPa 0,2 l/m 2 min 4 min 817 W/m 45,1 km/h
SO (6 Bft)
100,00 %
Durchschnitt _ 16,2 C 16,1 C 16,1 C 86 % 1009,3 hPa #1,6 l/m #4:48 h #1:48 h 264 W/m 15,7 km/h (3 Bft) 97,50 %
© 2019 W. Hausmann